     2              OBSERVATION DATA    GPS                 RINEX VERSION / TYPE
TRRINEXO V2.8.4 LH                                          PGM / RUN BY / DATE
                                                            COMMENT
BIT 2 OF LLI (+4) FLAGS DATA COLLECTED UNDER "AS" CONDITION COMMENT
Original Marker Name: OCOT                                  COMMENT
Campaign Name: hpgn ca 1991                                 COMMENT
4-Character Station Name: OCOT                              COMMENT
6-Character Antenna Code: TRMSST                            COMMENT
Vertical Measurement Point: BPA                             COMMENT
Vertical Offset to Rinex Ref. Point: 0.0000                 COMMENT
Radial Measurement Point: RRP                               COMMENT
Radial Offset to Rinex Ref. Point: 0.0000                   COMMENT
Antenna Height from Field Measurement: 2.2200 m             COMMENT
Original XYZ: -2335597.7209 -4832253.7856 3434397.2075      COMMENT
New XYZ position is based on association with SCEC monument COMMENT
E1C8V7N3+0011. Position of that monument is believed to be  COMMENT
valid to within 1 m horizontally; vertical accuracy         COMMENT
should be no worse than 3-times this value.                 COMMENT
                                                            COMMENT
Revised Rinex header created by UCSD GPS archive for        COMMENT
GSAC on 10-Apr-1999 (1999:100) 05:33:21 GMT                 COMMENT
For assistance contact dagnew@ucsd.edu or hjohnson@ucsd.edu COMMENT
                                                            COMMENT
OCOTILLO NCMN 1982                                          MARKER NAME
UNKNOWN OBSERVER NATIONAL GEODETIC SURVEY                   OBSERVER / AGENCY
486 TRIMBLE 4000 SST 4.30 / 4.20                            REC # / TYPE / VERS
17 TR 4000SST L1/L2 GEO                                     ANT # / TYPE
 -2335602.0000 -4832244.0000  3434393.0000                  APPROX POSITION XYZ
        2.2200        0.0000        0.0000                  ANTENNA: DELTA H/E/N
     1     2     0                                          WAVELENGTH FACT L1/2
     3    C1    L1    L2                                    # / TYPES OF OBSERV
     0                                                      INTERVAL
  1991     4     7     2     3   45.000000                  TIME OF FIRST OBS
  1991     4     7     3    29   60.000000                  TIME OF LAST OBS
     0                                                      # OF SATELLITES
                                                            END OF HEADER
 91  4  7  2  3 45.0000000  0  4 13 02 06 12
  20275432.234          -0.31318
  21882705.859          -0.53217
  20902855.617          -0.59117
  23894318.109          -0.33915
 91  4  7  2  4  0.0000000  0  4 13 02 06 12
  20272759.734      -14046.979 8        -0.28911
  21883844.117        5977.470 7        -0.36912
  20904641.117        9395.539 7
  23881896.758      -65278.460 5
 91  4  7  2  4 15.0000000  0  4 13 02 06 12
  20270108.812      -27979.245 8    -10856.586 1
  21884989.766       11997.840 7      4690.817 2
  20906452.359       18916.724 7        -0.05412
  23869475.242     -130547.624 5        -0.07211
 91  4  7  2  4 30.0000000  0  4 13 02 06 12
  20267480.945      -41788.183 7    -21616.774 2
  21886142.883       18069.545 7      9422.011 2
  20908293.047       28571.974 7      7523.511 2
  23857057.648     -195798.620 5    -50844.911 1
 91  4  7  2  4 45.0000000  0  4 13 02 06 12
  20264875.367      -55479.778 7    -32285.525 1
  21887309.398       24187.301 7     14189.084 2
  20910152.914       38355.689 7     15147.175 2
  23844643.922     -261036.500 5   -101679.511 1
 91  4  7  2  5  0.0000000  0  4 13 02 06 12
  20262293.836      -69049.312 8    -42859.164 1
  21888481.586       30356.087 7     18995.933 2
  20912039.711       48272.689 7     22874.696 2
  23832233.344     -326256.116 5   -152499.878 1
 91  4  7  2  5 15.0000000  0  4 13 02 06 12
  20259734.453      -82499.657 8    -53339.926 2
  21889665.969       36573.067 7     23840.325 2
  20913951.852       58320.104 7     30703.833 2
  23819825.367     -391459.981 5   -203307.980 1
 91  4  7  2  5 30.0000000  0  4 13 02 06 12
  20257198.602      -95818.345 8    -63718.097 1
  21890859.055       42851.099 7     28732.290 2
  20915892.875       68510.616 7     38644.476 2
  23807423.312     -456635.058 5   -254093.646 1
 91  4  7  2  5 45.0000000  0  4 13 02 06 12
  20254688.602     -109014.943 8    -74001.135 2
  21892066.430       49180.699 7     33664.436 2
  20917854.813       78834.655 7     46689.169 2
  23795024.758     -521790.461 5   -304863.994 1
 91  4  7  2  6  0.0000000  0  4 13 02 06 12
  20252201.031     -122084.395 7    -84185.103 2
  21893278.977       55567.337 7     38641.022 2
  20919848.781       89297.500 7     54842.017 2
  23782630.008     -586920.496 5   -355614.555 1
 91  4  7  2  6 15.0000000  0  4 13 02 06 12
  20249736.555     -135030.419 7    -94272.886 1
  21894505.750       62007.513 7     43659.333 2
  20921863.305       99895.514 7     63100.190 2
  23770241.352     -652028.441 5   -406347.914 1
 91  4  7  2  6 30.0000000  0  4 13 02 06 12
  20247298.977     -147846.144 7   -104259.144 1
  21895743.789       68508.221 7     48724.811 2
  20923905.859      110635.655 7     71469.109 2
  23757857.367     -717106.997 5   -457058.373 1
 91  4  7  2  6 45.0000000  0  4 13 02 06 12
  20244884.086     -160535.111 7   -114146.629 2
  21896992.063       75066.232 7     53834.943 2
  20925977.688      121514.551 7     79946.150 2
  23745478.945     -782159.172 5   -507748.286 1
 91  4  7  2  7  0.0000000  0  4 13 02 06 12
  20242494.602     -173093.734 7   -123932.548 1
  21898250.063       81685.303 7     58992.651 2
  20928075.953      132535.749 7     88534.084 2
  23733105.336     -847180.974 5   -558414.512 1
 91  4  7  2  7 15.0000000  0  4 13 02 06 12
  20240128.227     -185526.854 7   -133620.673 1
  21899520.398       88361.189 7     64194.632 2
  20930200.531      143694.870 7     97229.485 2
  23720735.609     -912176.371 5   -609060.187 1
 91  4  7  2  7 30.0000000  0  4 13 02 06 12
  20237786.641     -197827.901 7   -143205.889 2
  21900803.133       95100.495 7     69446.031 2
  20932351.203      154998.537 7    106037.520 2
  23708374.000     -977138.284 5   -659679.744 1
 91  4  7  2  7 45.0000000  0  4 13 02 06 12
  20235472.086     -209997.489 7   -152688.659 2
  21902095.844      101902.893 7     74746.598 2
  20934529.063      166446.098 7    114957.681 2
  23696019.078    -1042066.975 5   -710273.424 1
 91  4  7  2  8  0.0000000  0  4 13 02 06 12
  20233178.477     -222043.734 7   -162075.320 2
  21903401.805      108760.664 7     80090.309 2
  20936732.641      178029.606 7    123983.777 2
  23683669.313    -1106969.988 6   -760847.076 1
 91  4  7  2  8 15.0000000  0  4 13 02 06 12
  20230910.461     -233963.295 7   -171363.267 2
  21904718.563      115677.192 7     85479.801 2
  20938961.703      189752.522 7    133118.501 2
  23671323.047    -1171843.679 6   -811397.917 1
 91  4  7  2  8 30.0000000  0  4 13 02 06 12
  20228665.789     -245759.825 7   -180555.342 2
  21906047.102      122649.039 7     90912.390 2
  20941218.164      201611.245 7    142359.040 2
  23658984.141    -1236691.006 6   -861928.192 1
 91  4  7  2  8 45.0000000  0  4 13 02 06 12
  20226445.156     -257426.007 7   -189645.845 2
  21907384.797      129683.959 7     96394.142 2
  20943502.945      213613.274 7    151711.242 2
  23646649.914    -1301504.119 6   -912431.817 1
 91  4  7  2  8 59.9990000  0  4 13 02 06 12
  20224250.776     -268961.794 7   -198634.743 2
  21908733.190      136781.041 7    101924.335 2
  20945815.995      225757.322 7    161174.114 2
  23634324.253    -1366278.800 6   -962905.460 1
 91  4  7  2  9 14.9990000  0  4 13 02 06 12
  20222079.433     -280373.522 7   -207526.978 2
  21910096.433      143936.756 7    107500.210 2
  20948152.065      238040.356 7    170745.285 2
  23622002.112    -1431028.012 6  -1013359.284 1
 91  4  7  2  9 29.9990000  0  4 13 02 06 12
  20219931.550     -291662.236 7   -216323.355 2
  21911469.026      151149.037 7    113120.162 2
  20950514.456      250459.783 7    180422.741 2
  23609685.690    -1495748.711 6  -1063790.870 1
 91  4  7  2  9 44.9990000  0  4 13 02 06 12
  20217807.956     -302821.523 7   -225018.882 2
  21912852.917      158424.475 7    118789.334 2
  20952907.690      263021.982 7    190211.442 2
  23597375.901    -1560434.158 6  -1114195.011 1
 91  4  7  2  9 59.9990000  0  4 13 02 06 12
  20215709.198     -313847.684 7   -233610.677 1
  21914251.464      165766.633 7    124510.488 2
  20955323.519      275730.659 7    200114.286 2
  23585074.948    -1625080.170 6  -1164568.396 1
 91  4  7  2 10 14.9990000  0  4 13 02 06 12
  20213633.472     -324754.391 7   -242109.385 2
  21915657.792      173162.750 7    130273.694 2
  20957769.339      288572.480 7    210120.874 2
  23572775.940    -1689699.629 6  -1214921.112 1
 91  4  7  2 10 29.9990000  0  4 13 02 06 12
  20211582.222     -335533.303 7   -250508.521 2
  21917078.722      180621.319 7    136085.565 2
  20960238.526      301556.135 7    220237.981 2
  23560485.034    -1754283.519 6  -1265246.116 1
 91  4  7  2 10 44.9990000  0  4 13 02 06 12
  20209555.745     -346183.504 7   -258807.350 2
  21918509.378      188143.139 7    141946.714 2
  20962735.659      314682.308 7    230466.152 2
  23548203.026    -1818830.780 6  -1315542.562 1
 91  4  7  2 10 59.9990000  0  4 13 02 06 12
  20207553.815     -356705.561 7   -267006.332 2
  21919949.331      195728.191 7    147857.145 2
  20965262.589      327950.354 7    240804.860 2
  23535926.964    -1883341.467 6  -1365810.515 1
 91  4  7  2 11 14.9990000  0  4 13 02 06 12
  20205575.870     -367098.952 7   -275105.052 2
  21921407.144      203377.076 7    153817.305 2
  20967813.081      341361.102 7    251254.779 2
  23523658.073    -1947814.293 6  -1416048.967 1
 91  4  7  2 11 29.9990000  0  4 13 02 06 12
  20203620.862     -377371.344 7   -283109.491 1
  21922875.237      211082.641 7    159821.640 2
  20970389.784      354907.158 7    261810.119 2
  23511397.776    -2012256.328 6  -1466263.413 1
 91  4  7  2 11 44.9990000  0  4 13 02 06 12
  20201690.003     -387518.730 7   -291016.521 2
  21924351.503      218849.222 7    165873.516 2
  20972994.644      368592.720 7    272474.172 2
  23499140.987    -2076663.107 6  -1516450.400 1
 91  4  7  2 11 59.9990000  0  4 13 02 06 12
  20199783.815     -397535.901 7   -298822.082 2
  21925842.644      226682.271 7    171977.187 2
  20975626.136      382422.933 7    283250.939 2
  23486892.198    -2141028.767 6  -1566605.346 1
 91  4  7  2 12 14.9990000  0  4 13 02 06 12
  20197902.089     -407422.197 7   -306525.671 2
  21927344.292      234582.646 7    178133.322 2
  20978287.370      396398.722 7    294141.146 2
  23474651.925    -2205352.045 6  -1616727.290 1
 91  4  7  2 12 29.9990000  0  4 13 02 06 12
  20196043.636     -417190.913 7   -314137.633 2
  21928859.339      242537.428 7    184331.849 2
  20980972.339      410506.814 7    305134.437 2
  23462417.370    -2269645.854 6  -1666826.253 1
 91  4  7  2 12 44.9990000  0  4 13 02 06 12
  20194208.378     -426831.825 7   -321650.010 2
  21930386.144      250557.092 7    190580.934 2
  20983684.870      424757.547 7    316238.883 2
  23450189.269    -2333899.356 6  -1716893.801 1
 91  4  7  2 12 59.9990000  0  4 13 02 06 12
  20192397.573     -436348.254 7   -329065.387 2
  21931924.253      258638.229 7    196877.922 2
  20986420.323      439147.493 7    327451.799 2
  23437968.620    -2398115.618 6  -1766932.340 1
 91  4  7  2 13 14.9990000  0  4 13 02 06 12
  20190609.651     -445745.256 7   -336387.707 2
  21933471.933      266776.152 7    203219.160 2
  20989184.183      453671.772 7    338769.402 2
  23425754.354    -2462298.915 6  -1816945.208 1
 91  4  7  2 13 29.9990000  0  4 13 02 06 12
  20188843.355     -455025.672 7   -343619.178 2
  21935031.776      274968.591 7    209602.870 2
  20991974.167      468327.727 7    350189.611 2
  23413548.886    -2526451.463 6  -1866934.086 1
 91  4  7  2 13 44.9990000  0  4 13 02 06 12
  20187100.323     -464182.375 7   -350754.253 2
  21936601.534      283223.012 7    216034.884 2
  20994790.831      483122.740 7    361718.179 2
  23401348.261    -2590565.560 6  -1916893.016 1
 91  4  7  2 13 59.9990000  0  4 13 02 06 12
  20185382.589     -473214.988 7   -357792.630 2
  21938184.042      291539.645 7    222515.370 2
  20997633.144      498057.010 7    373355.263 2
  23389153.690    -2654640.382 6  -1966821.339 1
 91  4  7  2 14 14.9990000  0  4 13 02 06 12
  20183686.612     -482128.146 7   -364737.926 2
  21939777.792      299914.500 7    229041.227 2
  21000498.151      513126.168 7    385097.432 2
  23376968.065    -2718679.979 6  -2016722.227 1
 91  4  7  2 14 29.9990000  0  4 13 02 06 12
  20182011.917     -490921.521 7   -371589.882 2
  21941382.323      308348.075 7    235612.838 2
  21003393.479      528330.561 7    396944.995 2
  23364788.901    -2782683.511 6  -2066595.000 1
 91  4  7  2 14 44.9990000  0  4 13 02 06 12
  20180362.620     -499593.531 7   -378347.274 2
  21943000.995      316842.224 7    242231.643 2
  21006310.854      543672.073 7    408899.401 2
  23352616.745    -2846648.806 6  -2116437.991 1
 91  4  7  2 14 59.9990000  0  4 13 02 06 12
  20178735.292     -508144.276 7   -385010.172 2
  21944626.628      325397.091 7    248897.767 2
  21009258.847      559150.548 7    420960.535 2
  23340451.714    -2910575.412 6  -2166250.827 1
 91  4  7  2 15 14.9990000  0  4 13 02 06 12
  20177131.487     -516572.897 7   -391577.911 2
  21946268.378      334013.558 7    255611.889 2
  21012228.839      574766.858 7    433129.062 2
  23328292.862    -2974462.055 6  -2216032.538 1
 91  4  7  2 15 29.9990000  0  4 13 02 06 12
  20175550.925     -524877.601 7   -398049.088 2
  21947917.245      342694.240 7    262376.049 2
  21015228.667      590523.257 7    445406.749 2
  23316143.183    -3038306.099 6  -2265781.034 1
 91  4  7  2 15 44.9990000  0  4 13 02 06 12
  20173992.565     -533064.953 7   -404428.822 2
  21949581.909      351432.542 7    269185.107 2
  21018251.175      606412.877 7    457788.247 2
  23304001.831    -3102113.791 6  -2315501.215 1
 91  4  7  2 15 59.9990000  0  4 13 02 06 12
  20172458.995     -541129.077 7   -410712.535 2
  21951257.737      360235.065 7    276044.198 2
  21021300.354      622441.954 7    470278.409 2
  23291867.440    -3165878.433 6  -2365187.855 1
 91  4  7  2 16 14.9990000  0  4 13 02 06 12
  20170945.237     -549079.772 8   -416907.863 2
  21952942.448      369091.806 7    282945.552 2
  21024376.972      638600.804 7    482869.697 2
  23279739.417    -3229609.391 6  -2414848.243 1
 91  4  7  2 16 29.9990000  0  4 13 02 06 12
  20169454.964     -556912.053 7   -423010.921 2
  21954638.269      378007.977 7    289893.207 2
  21027477.839      654894.334 7    495565.928 2
  23267620.144    -3293301.191 6  -2464478.121 1
 91  4  7  2 16 44.9990000  0  4 13 02 06 12
  20167988.292     -564618.210 7   -429015.699 2
  21956348.276      386991.676 7    296893.480 2
  21030605.081      671330.423 7    508373.242 2
  23255508.417    -3356945.480 6  -2514070.994 1
 91  4  7  2 16 59.9990000  0  4 13 02 06 12
  20166545.573     -572202.856 8   -434925.796 2
  21958069.175      396038.564 7    303942.990 2
  21033757.792      687904.428 7    521288.030 2
  23243405.573    -3420546.456 6  -2563630.080 1
 91  4  7  2 17 14.9990000  0  4 13 02 06 12
  20165124.636     -579670.563 7   -440744.772 2
  21959803.323      405144.240 7    311038.315 2
  21036937.386      704611.791 7    534306.727 2
  23231311.847    -3484108.195 6  -2613158.616 1
 91  4  7  2 17 29.9990000  0  4 13 02 06 12
  20163724.909     -587021.074 7   -446472.423 2
  21961547.644      414309.358 7    318179.956 2
  21040142.292      721453.167 7    547429.853 2
  23219222.956    -3547629.624 6  -2662655.745 1
 91  4  7  2 17 44.9990000  0  4 13 02 06 12
  20162349.308     -594255.695 7   -452109.770 2
  21963303.050      423532.845 7    325367.074 2
  21043372.081      738427.159 7    560656.324 2
  23207142.769    -3611111.506 6  -2712122.039 1
 91  4  7  2 17 59.9990000  0  4 13 02 06 12
  20160994.362     -601375.581 7   -457657.714 2
  21965067.565      432814.131 7    332599.228 2
  21046627.409      755532.839 7    573985.397 2
  23195070.425    -3674554.340 6  -2761557.907 1
 91  4  7  2 18 14.9990000  0  4 13 02 06 12
  20159660.565     -608381.069 8   -463116.523 2
  21966845.198      442153.082 7    339876.321 2
  21049908.589      772770.086 7    587416.995 2
  23183002.956    -3737957.867 6  -2810963.153 1
 91  4  7  2 18 29.9990000  0  4 13 02 06 12
  20158350.159     -615268.657 7   -468483.454 2
  21968632.862      451553.412 7    347201.243 2
  21053214.394      790142.439 7    600953.869 2
  23170947.261    -3801318.231 6  -2860334.755 1
 91  4  7  2 18 44.9990000  0  4 13 02 06 12
  20157061.620     -622037.942 7   -473758.199 2
  21970434.769      461015.767 7    354574.497 1
  21056545.675      807650.203 7    614596.261 2
  23158898.987    -3864634.455 6  -2909671.965 1
 91  4  7  2 18 59.9990000  0  4 13 02 06 12
  20155794.565     -628694.864 7   -478945.388 2
  21972246.284      470534.675 7    361991.814 2
  21059901.112      825287.780 7    628339.800 2
  23146856.104    -3927911.599 6  -2958978.720 1
 91  4  7  2 19 14.9990000  0  4 13 02 06 12
  20154550.401     -635234.826 8   -484041.446 2
  21974067.503      480115.026 7    369457.020 1
  21063285.222      843059.895 7    642188.175 2
  23134823.706    -3991144.441 6  -3008250.963 1
 91  4  7  2 19 29.9990000  0  4 13 02 06 12
  20153328.323     -641660.124 7   -489048.156 2
  21975903.644      489754.739 7    376968.471 2
  21066692.448      860964.303 7    656139.635 2
  23122799.229    -4054334.707 6  -3057490.008 1
 91  4  7  2 19 44.9990000  0  4 13 02 06 12
  20152127.558     -647969.866 7   -493964.816 2
  21977750.089      499454.812 7    384526.956 2
  21070122.354      879001.778 7    670194.776 2
  23110783.417    -4117481.107 6  -3106694.898 1
 91  4  7  2 19 59.9990000  0  4 13 02 06 12
  20150949.019     -654164.358 7   -498791.671 2
  21979606.886      509215.482 7    392132.657 2
  21073581.526      897172.282 7    684353.575 2
  23098774.019    -4180583.287 6  -3155865.305 1
 91  4  7  2 20 14.9990000  0  4 13 02 06 12
  20149792.347     -660240.919 7   -503526.630 2
  21981476.261      519039.749 7    399787.924 2
  21077064.511      915478.467 7    698618.104 2
  23086774.136    -4243638.027 6  -3204998.758 1
 91  4  7  2 20 29.9990000  0  4 13 02 06 12
  20148657.151     -666202.943 7   -508172.343 2
  21983356.870      528924.279 7    407490.148 2
  21080575.175      933916.997 7    712985.766 2
  23074784.667    -4306648.355 6  -3254097.600 1
 91  4  7  2 20 44.9990000  0  4 13 02 06 12
  20147544.526     -672049.488 7   -512728.073 2
  21985249.440      538870.251 7    415240.244 1
  21084107.698      952488.808 7    727457.275 2
  23062802.612    -4369612.640 6  -3303160.566 1
 91  4  7  2 20 59.9990000  0  4 13 02 06 12
  20146452.526     -677787.071 7   -517198.895 2
  21987154.440      548871.507 7    423033.419 1
  21087666.128      971187.649 7    742027.769 2
  23050828.940    -4432536.771 6  -3352192.242 1
 91  4  7  2 21 14.9990000  0  4 13 02 06 12
  20145383.495     -683412.124 7   -521582.027 2
  21989066.042      558931.919 7    430872.695 1
  21091248.722      990017.154 7    756700.078 2
  23038862.237    -4495416.516 6  -3401189.339 1
 91  4  7  2 21 29.9990000  0  4 13 02 06 12
  20144334.401     -688923.965 8   -525876.954 2
  21990993.276      569052.633 7    438758.957 1
  21094856.815     1008978.115 7    771474.816 2
  23026906.979    -4558250.549 6  -3450150.805 1
 91  4  7  2 21 44.9990000  0  4 13 02 06 12
  20143307.394     -694319.792 8   -530081.481 2
  21992932.120      579236.557 7    446694.471 1
  21098490.854     1028073.393 7    786354.222 2
  23014959.331    -4621035.541 6  -3499074.057 1
 91  4  7  2 21 59.9990000  0  4 13 02 06 12
  20142300.401     -699610.280 7   -534203.917 2
  21994880.440      589473.173 7    454671.052 1
  21102147.409     1047292.341 7    801330.000 2
  23003017.784    -4683781.743 6  -3547967.090 1
 91  4  7  2 22 14.9990000  0  4 13 02 06 12
  20141314.464     -704786.623 7   -538237.414 2
  21996839.097      599771.590 7    462695.778 1
  21105830.956     1066643.780 7    816409.013 2
  22991086.581    -4746479.737 6  -3596822.544 1
 91  4  7  2 22 29.9990000  0  4 13 02 06 12
  20140350.940     -709850.107 7   -542182.968 2
  21998810.229      610131.004 7    470768.042 1
  21109538.120     1086126.671 7    831590.457 2
  22979165.589    -4809130.078 6  -3645640.876 1
 91  4  7  2 22 44.9990000  0  4 13 02 06 12
  20139408.979     -714801.616 7   -546041.267 2
  22000793.487      620551.234 7    478887.694 1
  21113270.808     1105740.298 7    846873.771 2
  22967252.550    -4871732.933 6  -3694422.213 1
 91  4  7  2 22 59.9990000  0  4 13 02 06 12
  20138489.237     -719636.901 7   -549809.008 2
  22002788.519      631036.617 7    487058.114 1
  21117028.925     1125489.138 7    862262.441 2
  22955348.878    -4934283.313 6  -3743162.658 1
 91  4  7  2 23 14.9990000  0  4 13 02 06 12
  20137590.675     -724359.199 7   -553488.702 2
  22004795.183      641584.000 7    495276.848 1
  21120811.948     1145369.856 7    877753.876 2
  22943456.292    -4996783.937 6  -3791864.326 1
 91  4  7  2 23 29.9990000  0  4 13 02 06 12
  20136712.894     -728971.120 7   -557082.393 2
  22006815.159      652191.111 7    503542.126 1
  21124620.308     1165379.805 7    893346.009 2
  22931571.425    -5059237.119 6  -3840529.037 1
 91  4  7  2 23 44.9990000  0  4 13 02 06 12
  20135855.792     -733472.493 7   -560589.937 2
  22008843.034      662858.570 7    511854.428 1
  21128451.065     1185519.314 7    909039.101 2
  22919696.690    -5121641.931 6  -3889156.057 1
 91  4  7  2 23 59.9990000  0  4 13 02 06 12
  20135021.120     -737863.158 7   -564011.219 2
  22010885.690      673586.470 7    520213.828 2
  21132309.667     1205788.421 7    924833.183 2
  22907830.159    -5183997.770 6  -3937744.905 1
 91  4  7  2 24 14.9990000  0  4 13 02 06 12
  20134206.542     -742145.435 7   -567348.041 2
  22012937.433      684372.881 7    528618.819 1
  21136190.800     1226184.889 7    940726.511 2
  22895973.987    -5246306.400 6  -3986296.974 1
 91  4  7  2 24 29.9990000  0  4 13 02 06 12
  20133412.222     -746316.966 7   -570598.568 2
  22015002.565      695220.780 7    537071.733 1
  21140096.370     1246711.399 7    956721.170 2
  22884126.995    -5308564.649 6  -4034809.790 1
 91  4  7  2 24 44.9990000  0  4 13 02 06 12
  20132638.909     -750382.902 7   -573766.815 2
  22017077.995      706125.155 6    545568.639 1
  21144026.261     1267362.877 7    972813.205 2
  22872286.112    -5370776.982 6  -4083286.834 1
 91  4  7  2 24 59.9990000  0  4 13 02 06 12
  20131884.690     -754338.296 7   -576848.926 2
  22019164.698      717091.253 7    554113.644 1
  21147982.019     1288144.465 7    989006.628 2
  22860458.409    -5432937.805 6  -4131723.729 1
 91  4  7  2 25 14.9990000  0  4 13 02 06 12
  20131152.417     -758185.101 7   -579846.424 2
  22021263.292      728117.386 6    562705.433 1
  21151959.237     1309054.132 7   1005299.850 1
  22848639.183    -5495048.485 6  -4180121.574 1
 91  4  7  2 25 29.9990000  0  4 13 02 06 12
  20130443.136     -761918.205 7   -582755.329 2
  22023372.714      739208.893 7    571348.152 1
  21155964.956     1330097.020 7   1021696.880 1
  22836829.808    -5557103.422 6  -4228475.961 1
 91  4  7  2 25 44.9990000  0  4 13 02 06 12
  20129752.003     -765547.226 7   -585583.120 2
  22025494.675      750356.673 7    580034.722 1
  21159993.479     1351263.658 7   1038190.332 1
  22825030.034    -5619111.667 6  -4276793.974 1
 91  4  7  2 25 59.9990000  0  4 13 02 06 12
  20129082.448     -769069.806 7   -588327.974 2
  22027626.394      761563.202 7    588767.074 1
  21164044.573     1372556.441 7   1054782.086 1
  22813240.167    -5681070.328 6  -4325073.344 1
 91  4  7  2 26 14.9990000  0  4 13 02 06 12
  20128431.956     -772484.236 7   -590988.558 2
  22029772.120      772830.420 7    597546.712 1
  21168120.573     1393977.077 7   1071473.464 1
  22801459.042    -5742976.997 6  -4373312.210 1
 91  4  7  2 26 29.9990000  0  4 13 02 06 12
  20127803.636     -775790.082 8   -593564.527 2
  22031925.979      784158.986 6    606374.164 1
  21172221.792     1415526.052 7   1088264.841 1
  22789690.058    -5804830.651 6  -4421509.757 1
 91  4  7  2 26 44.9990000  0  4 13 02 06 12
  20127195.401     -778988.517 8   -596056.802 2
  22034093.034      795548.085 6    615248.773 1
  21176346.089     1437202.264 7   1105155.364 1
  22777929.542    -5866631.880 6  -4469666.463 1
 91  4  7  2 26 59.9990000  0  4 13 02 06 12
  20126606.480     -782081.526 8   -598466.922 2
  22036272.011      806996.316 6    624169.465 1
  21180494.526     1459003.867 7   1122143.593 1
  22766176.534    -5928382.013 6  -4517783.348 1
 91  4  7  2 27 14.9990000  0  4 13 02 06 12
  20126036.550     -785074.050 8   -600798.749 2
  22038462.183      818498.766 6    633132.402 1
  21184667.089     1480925.996 7   1139225.748 1
  22754435.917    -5990085.408 6  -4565863.817 1
 91  4  7  2 27 29.9990000  0  4 13 02 06 12
  20125488.354     -787957.947 8   -603045.928 2
  22040662.972      830064.070 6    642144.327 1
  21188862.581     1502977.071 7   1156408.380 2
  22742702.495    -6051733.015 6  -4613900.816 1
 91  4  7  2 27 44.9990000  0  4 13 02 06 12
  20124959.636     -790739.344 8   -605213.240 2
  22042873.097      841686.412 6    651200.688 1
  21193082.839     1525150.854 7   1173686.629 1
  22730981.034    -6113330.512 6  -4661898.763 1
 91  4  7  2 27 59.9990000  0  4 13 02 06 12
  20124449.269     -793418.100 8   -607300.572 2
  22045096.167      853366.168 6    660301.796 1
  21197326.261     1547447.551 7   1191060.652 1
  22719270.269    -6174877.172 6  -4709857.105 1
 91  4  7  2 28 14.9990000  0  4 13 02 06 12
  20123959.690     -795990.820 8   -609305.278 2
  22047331.269      865107.194 6    669450.635 1
  21201592.378     1569870.661 7   1208533.172 2
  22707569.847    -6236368.953 6  -4757772.684 1
 91  4  7  2 28 29.9990000  0  4 13 02 06 12
  20123490.534     -798452.887 8   -611223.757 2
  22049578.167      876914.335 6    678650.995 1
  21205884.776     1592424.911 7   1226107.896 1
  22695879.089    -6297800.668 6  -4805641.445 1
 91  4  7  2 28 44.9990000  0  4 13 02 06 12
  20123040.987     -800810.630 8   -613060.949 2
  22051834.784      888781.462 6    687898.093 1
  21210200.253     1615103.884 7   1243779.798 1
  22684198.972    -6359178.031 6  -4853467.864 1
 91  4  7  2 28 59.9990000  0  4 13 02 06 12
  20122614.159     -803063.270 8   -614816.238 2
  22054106.136      900709.777 6    697192.867 1
  21214540.308     1637908.541 7   1261549.633 1
  22672529.854    -6420499.603 6  -4901250.786 1
 91  4  7  2 29 14.9990000  0  4 13 02 06 12
  20122204.612     -805212.527 8   -616490.967 2
  22056386.331      912697.683 6    706534.072 1
  21218903.823     1660837.220 7   1279416.111 1
  22660869.362    -6481766.525 6  -4948991.144 1
 91  4  7  2 29 29.9990000  0  4 13 02 06 12
  20121815.456     -807253.964 8   -618081.685 2
  22058681.190      924750.167 6    715925.617 1
  21223291.175     1683894.561 7   1297382.846 1
  22649224.065    -6542973.524 6  -4996684.816 1
 91  4  7  2 29 44.9990000  0  4 13 02 06 12
  20121446.448     -809197.219 8   -619595.904 2
  22060983.776      936857.859 6    725360.174 1
  21227701.198     1707070.979 7   1315442.373 1
  22637585.347    -6604129.623 6  -5044338.817 1
 91  4  7  2 29 59.9990000  0  4 13 02 06 12
  20121094.550     -811042.070 8   -621033.440 2
  22063298.956      949021.150 6    734838.047 1
  21232133.667     1730366.601 7   1333594.788 1
  22625958.089    -6665234.124 6  -5091952.619 1
 91  4  7  2 30 14.9990000  0  4 13 02 06 12
  20120763.995     -812782.622 8   -622389.706 2
  22065626.261      961246.049 6    744363.930 1
  21236591.347     1753787.282 7   1351844.646 2
  22614341.261    -6726280.637 6  -5139521.236 1
 91  4  7  2 30 29.9990000  0  4 13 02 06 12
  20120452.292     -814415.950 8   -623662.419 2
  22067963.847      973535.814 6    753940.350 1
  21241071.487     1777336.073 7   1370194.324 1
  22602735.800    -6787265.587 6  -5187041.875 1
 91  4  7  2 30 44.9990000  0  4 13 02 06 12
  20120160.659     -815951.778 8   -624859.154 2
  22070313.948      985881.326 6    763560.213 1
  21245575.042     1801003.346 7   1388636.326 1
  22591142.464    -6848197.918 6  -5234521.514 1
 91  4  7  2 30 59.9990000  0  4 13 02 06 12
  20119888.956     -817382.394 8   -625973.904 2
  22072674.800      998290.509 6    773229.694 1
  21250102.972     1824796.930 7   1407176.745 1
  22579557.878    -6909069.393 6  -5281953.729 1
 91  4  7  2 31 14.9990000  0  4 13 02 06 12
  20119635.362     -818715.275 8   -627012.497 2
  22075046.659     1010756.327 6    782943.299 1
  21254654.331     1848709.517 7   1425809.897 1
  22567982.964    -6969886.695 6  -5329343.751 1
 91  4  7  2 31 29.9990000  0  4 13 02 06 12
  20119399.987     -819946.691 8   -627972.032 2
  22077431.222     1023282.637 6    792704.037 1
  21259226.534     1872744.838 7   1444538.679 1
  22556421.956    -7030645.701 6  -5376688.342 1
 91  4  7  2 31 44.9990000  0  4 13 02 06 12
  20119186.464     -821075.937 8   -628851.950 2
  22079825.948     1035870.388 6    802512.655 1
  21263824.284     1896903.494 7   1463363.571 1
  22544872.229    -7091345.079 6  -5423986.477 1
 91  4  7  2 31 59.9990000  0  4 13 02 06 12
  20118989.862     -822102.589 8   -629651.928 2
  22082234.159     1048520.422 6    812369.805 1
  21268445.464     1921185.956 7   1482284.935 1
  22533332.089    -7151983.768 6  -5471237.314 1
 91  4  7  2 32 14.9990000  0  4 13 02 06 12
  20118813.456     -823027.768 8   -630372.835 2
  22084652.558     1061231.868 6    822274.813 1
  21273089.464     1945591.150 7   1501301.935 1
  22521803.839    -7212562.269 6  -5518441.258 1
 91  4  7  2 32 29.9990000  0  4 13 02 06 12
  20118655.667     -823854.487 8   -631017.023 2
  22087081.112     1074001.822 6    832225.410 1
  21277757.042     1970116.032 7   1520412.206 1
  22510288.917    -7273082.978 6  -5565600.162 1
 91  4  7  2 32 44.9990000  0  4 13 02 06 12
  20118517.854     -824580.324 8   -631582.598 2
  22089523.440     1086833.280 6    842223.934 1
  21282447.081     1994763.378 7   1539617.892 1
  22498783.011    -7333542.584 6  -5612711.463 1
 91  4  7  2 32 59.9990000  0  4 13 02 06 12
  20118397.659     -825214.007 8   -632076.370 2
  22091976.722     1099717.560 6    852263.615 1
  21287158.456     2019524.282 7   1558912.071 1
  22487287.175    -7393949.485 6  -5659781.699 1
 91  4  7  2 33 14.9990000  0  4 13 02 06 12
  20118294.667     -825750.032 8   -632494.039 2
  22094439.589     1112660.805 6    862349.243 1
  21291893.136     2044404.496 7   1578299.222 2
  22475802.308    -7454297.304 6  -5706805.900 1
 91  4  7  2 33 29.9990000  0  4 13 02 06 12
  20118212.683     -826186.344 8   -632834.014 2
  22096913.636     1125665.523 6    872482.770 1
  21296649.355     2069406.333 6   1597781.146 2
  22464331.308    -7514583.159 6  -5753781.819 1
 91  4  7  2 33 44.9980000  0  4 13 02 06 12
  20118146.826     -826529.364 8   -633101.295 2
  22099398.365     1138724.255 6    882658.388 1
  21301429.686     2094521.316 7   1617351.235 1
  22452870.264    -7574809.334 6  -5800711.236 1
 91  4  7  2 33 59.9980000  0  4 13 02 06 12
  20118102.506     -826775.855 8   -633293.353 2
  22101895.193     1151842.477 6    892880.367 1
  21306232.170     2119756.308 6   1637014.841 2
  22441420.451    -7634979.767 6  -5847597.216 1
 91  4  7  2 34 14.9980000  0  4 13 02 06 12
  20118071.553     -826921.756 8
  22104403.842     1165023.737 6    903151.470 1
  21311057.295     2145113.738 6   1656773.855 1
  22429983.107    -7695085.710 6  -5894432.951 1
 91  4  7  2 34 29.9980000  0  4 13 02 06 12
  20118063.139     -826973.625 8
  22106922.256     1178261.797 6    913466.826 1
  21315904.873     2170587.076 7   1676623.177 1
  22418558.404    -7755133.160 6  -5941223.113 1
 91  4  7  2 34 44.9980000  0  4 13 02 06 12
  20118069.693     -826935.181 8
  22109450.592     1191552.970 6    923823.570 1
  21320773.975     2196172.315 7   1696559.693 1
  22407140.084    -7815125.457 6  -5987970.298 1
 91  4  7  2 34 59.9980000  0  4 13 02 06 12
  20118096.756     -826801.821 8
  22111992.209     1204902.605 6    934225.864 1
  21325665.295     2221874.603 6   1716587.410 1
  22395734.764    -7875056.882 6  -6034670.052 1
 91  4  7  2 35 14.9980000  0  4 13 02 06 12
  20118138.514     -826573.464 8
  22114543.053     1218311.014 6    944673.958 1
  21330578.287     2247694.056 6   1736706.415 1
  22384343.162    -7934926.716 6  -6081321.805 1
 91  4  7  2 35 29.9980000  0  4 13 02 06 12
  20118202.256     -826249.692 8   -632883.292 2
  22117105.896     1231778.873 6    955168.378 1
  21335514.639     2273630.934 6   1756916.933 1
  22372961.990    -7994733.919 6  -6127924.762 1
 91  4  7  2 35 44.9980000  0  4 13 02 06 12
  20118281.818     -825827.935 8   -632554.638 2
  22119679.865     1245309.000 6    965711.315 1
  21340473.193     2299687.999 6   1777221.093 1
  22361592.326    -8054475.344 7  -6174476.467 1
 91  4  7  2 35 59.9980000  0  4 13 02 06 12
  20118381.764     -825308.259 8   -632149.676 2
  22122267.662     1258901.468 6    976302.826 1
  21345454.998     2325865.081 6   1797618.787 1
  22350237.873    -8114150.626 6  -6220976.635 1
 91  4  7  2 36 14.9980000  0  4 13 02 06 12
  20118498.068     -824697.012 8   -631673.368 2
  22124865.498     1272550.182 6    986938.163 1
  21350457.053     2352155.734 6   1818104.972 1
  22338891.795    -8173765.542 6  -6267429.753 1
 91  4  7  2 36 29.9980000  0  4 13 02 06 12
  20118629.701     -823992.147 8   -631124.111 2
  22127474.006     1286257.693 6    997619.318 1
  21355481.295     2378562.239 6   1838681.430 1
  22327560.186    -8233317.206 7  -6313833.588 1
 91  4  7  2 36 44.9980000  0  4 13 02 06 12
  20118783.123     -823195.408 8   -630503.264 2
  22130092.920     1300022.667 6   1008345.246 1
  21360528.240     2405083.029 6   1859346.952 1
  22316240.178    -8292806.643 7  -6360188.929 1
 91  4  7  2 36 59.9980000  0  4 13 02 06 12
  20118949.896     -822306.046 8   -629810.239 2
  22132723.139     1313846.084 6   1019116.714 1
  21365597.350     2431718.763 6   1880102.027 1
  22304931.701    -8352232.585 7  -6406494.800 1
 91  4  7  2 37 14.9980000  0  4 13 02 06 12
  20119137.045     -821325.582 8   -629046.237 2
  22135364.225     1327726.896 6   1029932.904 1
  21370686.803     2458467.968 6   1900945.517 1
  22293636.350    -8411595.845 7  -6452751.822 1
 91  4  7  2 37 29.9980000  0  4 13 02 06 12
  20119343.029     -820252.570 8   -628210.110 2
  22138015.889     1341666.569 6   1040794.965 1
  21375798.873     2485332.060 6   1921878.538 1
  22282349.701    -8470894.448 6  -6498958.466 1
 91  4  7  2 37 44.9980000  0  4 13 02 06 12
  20119564.037     -819086.706 8   -627301.629 2
  22140681.873     1355665.795 6   1051703.434 1
  21380933.607     2512311.347 6   1942901.314 1
  22271078.498    -8530127.475 7  -6545114.007 1
 91  4  7  2 37 59.9980000  0  4 13 02 06 12
  20119802.764     -817829.614 8   -626322.067 2
  22143355.967     1369723.423 6   1062657.412 1
  21386089.475     2539404.400 6   1964012.730 1
  22259820.670    -8589295.795 7  -6591219.121 1
 91  4  7  2 38 14.9980000  0  4 13 02 06 12
  20120059.771     -816482.410 8   -625272.282 2
  22146041.873     1383838.431 6   1073656.105 1
  21391265.295     2566610.034 6   1985211.887 1
  22248572.756    -8648399.947 7  -6637274.231 1
 91  4  7  2 38 29.9980000  0  4 13 02 06 12
  20120332.646     -815045.114 8   -624152.302 2
  22148740.014     1398011.322 6   1084699.904 1
  21396463.709     2593928.537 6   2006498.990 1
  22237337.709    -8707439.113 7  -6683278.712 1
 91  4  7  2 38 44.9980000  0  4 13 02 06 12
  20120624.764     -813511.283 8   -622957.093 2
  22151448.459     1412248.689 6   1095793.939 1
  21401686.342     2621366.333 6   2027879.045 1
  22226115.654    -8766406.113 7  -6729226.952 1
 91  4  7  2 38 59.9980000  0  4 13 02 06 12
  20120933.271     -811888.997 8   -621692.962 2
  22154168.787     1426542.385 6   1106931.857 1
  21406928.662     2648914.968 6   2049345.465 1
  22214907.553    -8825308.767 7  -6775125.052 1
 91  4  7  2 39 14.9980000  0  4 13 02 06 12
  20121259.631     -810178.596 8   -620360.167 2
  22156898.912     1440892.927 6   1118114.088 1
  21412191.084     2676574.385 6   2070898.209 1
  22203710.748    -8884146.587 7  -6820972.633 1
 91  4  7  2 39 29.9980000  0  4 13 02 06 12
  20121601.787     -808378.587 8   -618957.552 2
  22159641.678     1455301.925 6   1129341.864 1
  21417476.178     2704346.154 6   2092538.507 1
  22192528.076    -8942917.511 7  -6866768.072 1
 91  4  7  2 39 44.9980000  0  4 13 02 06 12
  20121962.584     -806482.775 8   -617480.274 2
  22162395.639     1469775.617 6   1140620.052 1
  21422783.318     2732236.327 6   2114271.055 1
  22181357.342    -9001614.682 7  -6912506.049 1
 91  4  7  2 39 59.9980000  0  4 13 02 06 12
  20122340.092     -804495.890 8   -615932.041 2
  22165160.982     1484310.095 6   1151945.601 1
  21428112.279     2760240.560 6   2136092.482 1
  22170202.334    -9060241.895 7  -6958189.517 1
 91  4  7  2 40 14.9980000  0  4 13 02 06 12
  20122735.021     -802422.802 8   -614316.632 2
  22167938.100     1498900.515 6   1163314.738 1
  21433462.397     2788353.662 6   2157998.760 1
  22159058.201    -9118803.647 7  -7003821.968 1
 91  4  7  2 40 29.9980000  0  4 13 02 06 12
  20123145.482     -800262.041 8   -612632.908 2
  22170725.646     1513548.346 6   1174728.612 1
  21438832.701     2816577.050 6   2179990.963 1
  22147927.717    -9177298.022 7  -7049401.913 1
 91  4  7  2 40 44.9980000  0  4 13 02 06 12
  20123574.076     -798015.529 8   -610882.364 2
  22173523.529     1528252.561 6   1186186.420 1
  21444224.350     2844909.207 6   2202067.924 1
  22136808.279    -9235725.936 7  -7094930.078 1
 91  4  7  2 40 59.9980000  0  4 13 02 06 12
  20124018.490     -795674.866 8   -609058.458 2
  22176334.615     1543021.846 6   1197694.932 1
  21449638.725     2873358.632 6   2224236.271 1
  22125703.740    -9294078.248 7  -7140399.319 1
 91  4  7  2 41 14.9980000  0  4 13 02 06 12
  20124481.568     -793246.756 8   -607166.406 2
  22179155.943     1557849.612 6   1209249.012 1
  21455073.006     2901918.395 6   2246490.588 1
  22114612.490    -9352361.138 7  -7185814.472 1
 91  4  7  2 41 29.9980000  0  4 13 02 06 12
  20124959.600     -790734.174 8   -605208.529 2
  22181988.725     1572733.152 6   1220846.553 1
  21460528.631     2930585.684 6   2268828.688 1
  22103533.842    -9410576.995 7  -7231177.394 1
 91  4  7  2 41 44.9980000  0  4 13 02 06 12
  20125453.928     -788132.268 8   -603181.053 2
  22184833.498     1587677.630 6   1232491.575 1
  21466004.678     2959365.121 6   2291254.178 1
  22092469.639    -9468720.476 7  -7276483.915 1
 91  4  7  2 41 59.9980000  0  4 13 02 06 12
  20125965.248     -785440.692 8   -601083.698 2
  22187688.287     1602683.888 6   1244184.740 1
  21471503.568     2988257.376 6   2313767.580 1
  22081419.365    -9526790.205 7  -7321732.956 1
 91  4  7  2 42 14.9980000  0  4 13 02 06 12
  20126495.365     -782662.684 8   -598919.000 2
  22190554.084     1617748.761 6   1255923.574 1
  21477021.490     3017259.261 6   2336366.412 1
  22070382.881    -9584788.811 7  -7366926.593 1
 91  4  7  2 42 29.9980000  0  4 13 02 06 12
  20127039.178     -779799.466 8   -596687.902 2
  22193432.740     1632871.258 6   1267707.321 1
  21482561.131     3046369.403 6   2359049.599 1
  22059359.396    -9642717.117 7  -7412065.440 1
 91  4  7  2 42 44.9980000  0  4 13 02 06 12
  20127601.818     -776846.796 8   -594387.101 2
  22196322.725     1648056.019 6   1279539.582 1
  21488121.459     3075591.994 6   2381820.418 1
  22048350.365    -9700570.327 7  -7457145.772 1
 91  4  7  2 42 59.9980000  0  4 13 02 06 12
  20128180.475     -773807.821 8   -592019.057 2
  22199222.311     1663300.267 6   1291418.201 1
  21493703.842     3104924.006 6   2404676.487 1
  22037354.451    -9758350.779 7  -7502169.410 1
 91  4  7  2 43 14.9980000  0  4 13 02 06 12
  20128774.201     -770683.095 8   -589584.192 2
  22202135.264     1678603.549 6   1303342.813 1
  21499307.420     3134364.896 6   2427617.395 1
  22026373.397    -9816058.387 7  -7547136.280 1
 91  4  7  2 43 29.9980000  0  4 13 02 06 12
  20129385.881     -767468.656 7   -587079.419 2
  22205058.498     1693970.314 6   1315316.884 1
  21504931.826     3163918.625 6   2450646.229 1
  22015407.396    -9873688.460 7  -7592042.737 1
 91  4  7  2 43 44.9980000  0  4 13 02 06 12
  20130013.279     -764171.524 8   -584510.212 2
  22207994.193     1709393.826 6   1327335.195 1
  21510574.342     3193578.195 6   2473757.534 1
  22004453.365    -9931247.536 7  -7636893.875 1
 91  4  7  2 43 59.9980000  0  4 13 02 06 12
  20130658.272     -760788.683 7   -581874.214 2
  22210941.279     1724877.306 6   1339400.229 1
  21516239.514     3223346.632 6   2496953.679 1
  21993514.639    -9988731.921 7  -7681686.810 1
 91  4  7  2 44 14.9980000  0  4 13 02 06 12
  20131317.076     -757324.188 8   -579174.584 2
  22213898.303     1740417.054 6   1351509.107 1
  21521924.678     3253219.945 6   2520231.538 1
  21982588.818   -10046144.961 7  -7726424.151 1
 91  4  7  2 44 29.9980000  0  4 13 02 06 12
  20131992.686     -753772.764 7   -576407.225 2
  22216866.279     1756018.760 6   1363666.259 1
  21527630.154     3283203.537 6   2543595.335 1
  21971677.490   -10103480.558 7  -7771101.157 1
 91  4  7  2 44 44.9980000  0  4 13 02 06 12
  20132684.131     -750135.812 7   -573573.218 2
  22219846.959     1771681.414 6   1375870.911 1
  21533356.412     3313296.029 6   2567043.996 1
  21960783.506   -10160739.552 7  -7815718.468 1
 91  4  7  2 44 59.9980000  0  4 13 02 06 12
  20133392.553     -746415.513 8   -570674.268 2
  22222838.514     1787403.185 6   1388121.617 1
  21539102.795     3343495.209 6   2590575.780 1
  21949900.725   -10217923.491 7  -7860277.295 1
 91  4  7  2 45 14.9980000  0  4 13 02 06 12
  20134117.193     -742605.595 7   -567705.489 2
  22225842.686     1803190.416 6   1400423.332 1
  21544872.225     3373807.200 6   2614195.473 1
  21939034.076   -10275025.596 7  -7904772.359 1
 91  4  7  2 45 29.9980000  0  4 13 02 06 12
  20134857.967     -738713.265 7   -564672.481 2
  22228858.053     1819036.293 6   1412770.746 1
  21550659.443     3404224.918 6   2637897.560 1
  21928181.967   -10332052.324 7  -7949208.693 1
 91  4  7  2 45 44.9980000  0  4 13 02 06 12
  20135613.717     -734739.770 7   -561576.237 2
  22231884.568     1834939.733 6   1425163.013 1
  21556466.475     3434747.104 6   2661681.035 1
  21917345.514   -10389004.214 7  -7993586.709 1
 91  4  7  2 45 59.9980000  0  4 13 02 06 12
  20136386.771     -730681.097 8   -558413.616 2
  22234923.264     1850905.087 6   1437603.525 1
  21562297.396     3465377.939 6   2685549.169 1
  21906521.545   -10445876.557 7  -8037902.743 1
 91  4  7  2 46 14.9980000  0  4 13 02 06 12
  20137174.295     -726540.914 7   -555187.482 2
  22237972.873     1866928.981 6   1450089.654 1
  21568145.061     3496113.626 6   2709499.017 1
  21895713.615   -10502672.548 7  -8082159.280 1
 91  4  7  2 46 29.9980000  0  4 13 02 06 12
  20137978.225     -722316.891 8   -551896.013 2
  22241033.576     1883014.088 6   1462623.476 1
  21574015.764     3526956.413 6   2733532.319 1
  21884921.201   -10559389.078 7  -8126353.912 1
 91  4  7  2 46 44.9980000  0  4 13 02 06 12
  20138797.014     -718013.487 8   -548542.693 2
  22244104.459     1899156.086 6   1475201.644 1
  21579903.498     3557901.745 6   2757645.523 1
  21874143.170   -10616030.143 7  -8170489.730 1
 91  4  7  2 46 59.9980000  0  4 13 02 06 12
  20139633.646     -713619.548 8   -545118.820 2
  22247189.514     1915366.634 6   1487833.230 1
  21585814.443     3588961.140 6   2781847.608 1
  21863381.451   -10672583.786 7  -8214557.434 1
 91  4  7  2 47 14.9980000  0  4 13 02 06 12
  20140485.412     -709143.529 8   -541630.994 2
  22250285.998     1931637.459 6   1500511.783 1
  21591744.475     3620125.858 6   2806131.768 1
  21852634.857   -10729057.912 7  -8258563.176 1
 91  4  7  2 47 29.9980000  0  4 13 02 06 12
  20141350.881     -704592.281 8   -538084.546 2
  22253392.670     1947961.945 6   1513232.144 1
  21597694.647     3651389.244 6   2830492.806 1
  21841901.537   -10785458.726 7  -8302511.799 1
 91  4  7  2 47 44.9980000  0  4 13 02 06 12
  20142233.756     -699957.019 8   -534472.641 2
  22256509.100     1964349.386 6   1526001.547 1
  21603662.732     3682760.068 6   2854937.564 1
  21831184.146   -10841776.787 7  -8346395.936 1
 91  4  7  2 47 59.9980000  0  4 13 02 06 12
  20143131.139     -695234.271 8   -530792.567 2
  22259642.389     1980803.473 6   1538822.900 1
  21609653.537     3714241.839 6   2879468.772 1
  21820483.764   -10898007.765 7  -8390212.217 1
 91  4  7  2 48 14.9980000  0  4 13 02 06 12
  20144045.654     -690429.918 8   -527048.902 2
  22262783.951     1997318.585 6   1551691.801 1
  21615664.271     3745828.655 6   2904081.831 1
  21809798.748   -10954156.951 7  -8433964.768 1
 91  4  7  2 48 29.9980000  0  4 13 02 06 12
  20144976.381     -685540.841 8   -523239.220 2
  22265938.600     2013898.119 6   1564610.875 1
  21621695.850     3777523.500 6   2928779.066 1
  21799130.912   -11010220.734 7  -8477650.772 1
 91  4  7  2 48 44.9980000  0  4 13 02 06 12
  20145921.225     -680574.682 8   -519369.475 2
  22269106.381     2030534.982 6   1577574.633 1
  21627745.607     3809318.990 6   2953554.731 1
  21788476.748   -11066205.830 7  -8521275.460 1
 91  4  7  2 48 59.9980000  0  4 13 02 06 12
  20146881.662     -675530.182 8   -515438.678 2
  22272283.928     2047230.510 6   1590584.133 1
  21633815.834     3841216.240 6   2978409.682 1
  21777838.865   -11122110.536 7  -8564837.506 1
 91  4  7  2 49 14.9980000  0  4 13 02 06 12
  20147856.475     -670403.038 8   -511443.482 2
  22275471.600     2063989.307 6   1603642.920 1
  21639907.279     3873219.680 6   3003347.391 1
  21767217.170   -11177929.765 7  -8608332.948 1
 91  4  7  2 49 29.9980000  0  4 13 02 06 12
  20148848.357     -665195.061 8   -507385.299 2
  22278671.342     2080809.631 6   1616749.631 1
  21646017.545     3905327.216 6   3028366.205 1
  21756610.084   -11233664.858 7  -8651762.834 1
 91  4  7  2 49 44.9980000  0  4 13 02 06 12
  20149852.803     -659914.997 8   -503270.943 2
  22281884.154     2097683.238 6   1629897.865 1
  21652146.021     3937530.330 6   3053459.506 1
  21746017.889   -11289323.871 7  -8695133.433 1
 91  4  7  2 49 59.9980000  0  4 13 02 06 12
  20150873.740     -654552.365 8   -499092.253 2
  22285106.506     2114620.932 6   1643096.032 1
  21658292.631     3969839.486 6   3078635.422 1
  21735443.936   -11344895.607 7  -8738436.027 1
 91  4  7  2 50 14.9980000  0  4 13 02 06 12
  20151907.764     -649112.117 8   -494853.080 2
  22288343.373     2131617.901 6   1656340.394 1
  21664460.256     4002249.510 6   3103889.958 1
  21724883.631   -11400384.531 7  -8781674.090 1
 91  4  7  2 50 29.9980000  0  4 13 02 06 12
  20152959.615     -643591.574 8   -490551.342 2
  22291586.490     2148677.507 6   1669633.560 1
  21670647.732     4034763.522 6   3129225.503 1
  21714341.357   -11455786.926 7  -8824844.737 1
 91  4  7  2 50 44.9980000  0  4 13 02 06 12
  20154025.873     -637986.888 8   -486184.040 2
  22294848.029     2165803.699 6   1682978.606 1
  21676855.654     4067385.200 6   3154644.944 1
  21703815.936   -11511098.433 7  -8867944.553 1
 91  4  7  2 50 59.9980000  0  4 13 02 06 12
  20155106.490     -632307.915 8   -481758.852 2
  22298116.123     2182986.882 6   1696368.057 1
  21683081.506     4100104.565 6   3180140.505 1
  21693305.615   -11566328.347 7  -8910980.797 1
 91  4  7  2 51 14.9980000  0  4 13 02 06 12
  20156202.170     -626547.772 8   -477270.416 2
  22301399.568     2200234.238 6   1709807.520 1
  21689326.912     4132928.499 6   3205717.549 1
  21682812.404   -11621469.081 7  -8953947.548 1
 91  4  7  2 51 29.9980000  0  4 13 02 06 12
  20157312.990     -620712.966 8   -472723.795 2
  22304690.959     2217539.734 6   1723292.295 1
  21695592.732     4165850.716 6   3231371.176 1
  21672334.732   -11676526.420 7  -8996849.318 1
 91  4  7  2 51 44.9980000  0  4 13 02 06 12
  20158436.725     -614802.055 8   -468117.877 2
  22307997.795     2234905.097 6   1736823.726 1
  21701876.412     4198872.598 6   3257102.466 1
  21661873.928   -11731498.220 7  -9039684.427 1
 91  4  7  2 51 59.9980000  0  4 13 02 06 12
  20159578.029     -608809.137 8   -463448.056 2
  22311312.951     2252336.476 6   1750406.594 1
  21708181.022     4231999.981 6   3282915.967 1
  21651431.404   -11786377.955 7  -9082447.801 1
 91  4  7  2 52 14.9980000  0  4 13 02 06 12
  20160732.576     -602743.369 8   -458721.466 2
  22314640.467     2269824.987 6   1764033.974 1
  21714503.654     4265223.637 6   3308804.482 1
  21641005.701   -11841174.176 7  -9125146.097 1
 91  4  7  2 52 29.9980000  0  4 13 02 06 12
  20161900.568     -596600.580 8   -453934.861 2
  22317982.350     2287374.892 6   1777709.188 1
  21720845.147     4298547.698 6   3334771.229 1
  21630592.889   -11895882.183 7  -9167775.652 1
 91  4  7  2 52 44.9980000  0  4 13 02 06 12
  20163084.654     -590380.272 8   -449087.852 2
  22321332.529     2304987.196 6   1791433.042 1
  21727205.209     4331972.824 6   3360816.739 1
  21620200.092   -11950500.589 7  -9210335.395 1
 91  4  7  2 52 59.9980000  0  4 13 02 06 12
  20164283.107     -584081.308 8   -444179.555 2
  22324696.123     2322663.124 6   1805206.463 1
  21733586.904     4365499.922 6   3386941.699 1
  21609823.623   -12005027.853 7  -9252824.122 1
 91  4  7  2 53 14.9980000  0  4 13 02 06 12
  20165496.756     -577705.977 8   -439211.750 2
  22328071.912     2340400.491 6   1819027.750 1
  21739984.912     4399126.610 6   3413144.269 1
  21599465.701   -12059465.718 7  -9295243.182 1
 91  4  7  2 53 29.9980000  0  4 13 02 06 12
  20166723.279     -571259.797 8   -434188.740 2
  22331457.396     2358194.384 6   1832893.087 1
  21746402.217     4432847.518 6   3439420.253 1
  21589121.631   -12113818.881 7  -9337596.237 1
 91  4  7  2 53 44.9980000  0  4 13 02 06 12
  20167963.811     -564740.799 8   -429108.989 2
  22334855.498     2376047.016 6   1846804.207 1
  21752836.506     4466664.620 6   3465771.189 1
  21578795.123   -12168084.657 7  -9379881.195 1
 91  4  7  2 53 59.9980000  0  4 13 02 06 12
  20169218.842     -558144.963 8   -423969.367 2
  22338263.615     2393962.602 6   1860764.385 1
  21759290.756     4500581.902 6   3492200.182 1
  21568487.459   -12222258.387 7  -9422094.438 1
 91  4  7  2 54 14.9980000  0  4 13 02 06 12
  20170489.045     -551470.497 8   -418768.476 2
  22341686.365     2411943.290 6   1874775.290 1
  21765763.811     4534601.211 6   3518708.693 1
  21558195.615   -12276337.667 7  -9464234.083 1
 91  4  7  2 54 29.9980000  0  4 13 02 06 12
  20171774.623     -544716.089 8   -413505.292 2
  22345121.975     2429990.489 6   1888838.017 1
  21772256.725     4568723.654 6   3545297.555 1
  21547923.045   -12330320.631 7  -9506298.666 1
 91  4  7  2 54 44.9980000  0  4 13 02 06 12
  20173075.428     -537877.316 8   -408176.372 2
  22348568.076     2448108.942 6   1902956.282 1
  21778772.873     4602953.624 6   3571970.216 1
  21537668.881   -12384202.190 7  -9548284.240 1
 91  4  7  2 54 59.9980000  0  4 13 02 06 12
  20174391.662     -530961.622 8   -402787.505 2
  22352028.568     2466291.744 6   1917124.671 1
  21785304.068     4637283.933 6   3598721.049 1
  21527434.357   -12437989.040 7  -9590196.012 1
 91  4  7  2 55 14.9980000  0  4 13 02 06 12
  20175720.201     -523976.047 8   -397344.189 2
  22355498.537     2484532.278 6   1931338.049 1
  21791855.053     4671707.495 6   3625544.560 1
  21517214.123   -12491687.363 7  -9632038.811 1
 91  4  7  2 55 29.9980000  0  4 13 02 06 12
  20177064.748     -516913.749 8   -391841.086 2
  22358982.084     2502837.526 6   1945601.843 1
  21798424.521     4706231.171 6   3652446.068 1
  21507015.514   -12545289.853 7  -9673806.927 1
 91  4  7  2 55 44.9980000  0  4 13 02 06 12
  20178423.389     -509774.957 8   -386278.379 2
  22362476.232     2521207.255 6   1959915.890 1
  21805012.967     4740854.552 6   3679425.282 1
  21496833.397   -12598796.213 7  -9715500.136 1
 91  4  7  2 55 59.9980000  0  4 13 02 06 12
  20179795.607     -502557.713 8   -380654.542 2
  22365985.912     2539643.991 6   1974282.150 1
  21811621.709     4775579.571 6   3706483.680 1
  21486669.811   -12652203.739 7  -9757116.328 1
 91  4  7  2 56 14.9980000  0  4 13 02 06 12
  20181183.240     -495269.041 8   -374975.044 2
  22369506.568     2558140.977 6   1988695.356 1
  21818247.803     4810399.414 6   3733615.975 1
  21476524.998   -12705518.669 7  -9798660.369 1
 91  4  7  2 56 29.9980000  0  4 13 02 06 12
  20182584.756     -487904.576 8   -369236.491 2
  22373038.514     2576703.001 6   2003159.235 1
  21824892.857     4845318.321 6   3760825.456 1
  21466397.256   -12758736.060 7  -9840128.407 1
 91  4  7  2 56 44.9980000  0  4 13 02 06 12
  20184001.350     -480465.321 8   -363439.658 2
  22376581.756     2595329.174 6   2017673.100 1
  21831555.475     4880335.109 6   3788111.202 1
  21456289.787   -12811856.467 7  -9881520.878 1
 91  4  7  2 56 59.9980000  0  4 13 02 06 12
  20185431.006     -472951.865 8   -357585.002 2
  22380138.865     2614018.808 6   2032236.425 1
  21838238.201     4915449.042 6   3815472.669 1
  21446198.943   -12864879.891 7  -9922837.774 1
 91  4  7  2 57 14.9980000  0  4 13 02 06 12
  20186873.717     -465367.110 8   -351674.788 2
  22383708.920     2632769.458 6   2046847.291 1
  21844937.240     4950657.322 6   3842907.627 1
  21436126.053   -12917808.490 7  -9964080.783 1
 91  4  7  2 57 29.9980000  0  4 13 02 06 12
  20188330.139     -457712.833 8   -345710.395 2
  22387287.615     2651580.010 6   2061504.836 1
  21851654.678     4985958.338 6   3870414.867 1
  21426072.576   -12970643.278 7 -10005250.689 1
 91  4  7  2 57 44.9980000  0  4 13 02 06 12
  20189801.256     -449981.258 8   -339685.775 2
  22390879.107     2670458.229 6   2076215.099 1
  21858391.240     5021359.648 6   3898000.249 1
  21416037.498   -13023375.953 7 -10046341.029 2
 91  4  7  2 57 59.9980000  0  4 13 02 06 12
  20191286.201     -442177.679 8   -333605.050 2
  22394485.178     2689399.232 6   2090974.289 1
  21865147.311     5056856.042 6   3925659.713 1
  21406021.248   -13076011.016 7 -10087355.304 2
 91  4  7  2 58 14.9980000  0  4 13 02 06 12
  20192785.279     -434299.331 8   -327466.068 2
  22398100.225     2708405.984 6   2105784.715 1
  21871919.529     5092450.287 6   3953395.439 1
  21396024.545   -13128545.052 7 -10128290.863 1
 91  4  7  2 58 29.9970000  0  4 13 02 06 12
  20194297.228     -426355.389 8   -321275.974 2
  22401729.563     2727468.770 6   2120638.795 1
  21878709.392     5128131.271 6   3981198.741 1
  21386046.282   -13180982.658 7 -10169151.278 2
 91  4  7  2 58 44.9970000  0  4 13 02 06 12
  20195823.446     -418337.987 8   -315028.639 2
  22405367.985     2746597.205 6   2135544.038 1
  21885517.970     5163910.441 6   4009078.562 1
  21376085.017   -13233323.453 7 -10209936.261 2
 91  4  7  2 58 59.9970000  0  4 13 02 06 12
  20197364.235     -410240.493 8   -308718.890 2
  22409021.696     2765797.769 6   2150505.491 1
  21892347.696     5199792.691 6   4037038.700 1
  21366146.345   -13285555.946 7 -10250636.850 2
 91  4  7  2 59 14.9970000  0  4 13 02 06 12
  20198917.790     -402074.322 8   -302355.627 2
  22412687.806     2785059.087 6   2165514.283 1
  21899192.962     5235766.472 6   4065070.167 1
  21356225.595   -13337691.036 7 -10291261.542 1
 91  4  7  2 59 29.9970000  0  4 13 02 06 12
  20200483.298     -393843.553 8   -295942.031 2
  22416363.587     2804377.366 6   2180567.460 1
  21906055.220     5271827.716 6   4093169.778 1
  21346323.204   -13389732.212 7 -10331813.054 1
 91  4  7  2 59 44.9970000  0  4 13 02 06 12
  20202063.259     -385541.425 8   -289472.829 2
  22420051.196     2823759.914 6   2195670.705 1
  21912935.603     5307983.410 6   4121342.982 1
  21336438.118   -13441671.727 7 -10372285.353 2
 91  4  7  2 59 59.9970000  0  4 13 02 06 12
  20203656.306     -377175.643 8   -282954.026 2
  22423751.540     2843198.989 6   2210818.006 1
  21919831.735     5344225.447 6   4149583.484 1
  21326571.899   -13493516.994 7 -10412684.207 1
 91  4  7  3  0 14.9970000  0  4 13 02 06 12
  20205261.431     -368740.559 8   -276381.226 2
  22427463.165     2862700.517 6   2226013.966 1
  21926746.087     5380559.391 6   4177895.581 1
  21316725.126   -13545261.736 7 -10453004.733 2
 91  4  7  3  0 29.9970000  0  4 13 02 06 12
  20206878.735     -360238.772 8   -269756.433 2
  22431185.267     2882262.390 6   2241256.954 1
  21933677.681     5416982.856 6   4206277.440 1
  21306897.470   -13596907.715 7 -10493248.296 2
 91  4  7  3  0 44.9970000  0  4 13 02 06 12
  20208511.118     -351660.158 8   -263071.781 2
  22434922.220     2901894.948 6   2256555.031 1
  21940627.837     5453505.886 6   4234736.885 1
  21297089.774   -13648444.250 7 -10533406.585 1
 91  4  7  3  0 59.9970000  0  4 13 02 06 12
  20210155.571     -343017.110 8   -256336.924 2
  22438669.431     2921585.885 6   2271898.589 1
  21947592.228     5490115.919 6   4263264.117 1
  21287302.087   -13699883.205 7 -10573488.836 2
 91  4  7  3  1 14.9970000  0  4 13 02 06 12
  20211814.517     -334308.328 8   -249550.842 2
  22442425.384     2941336.616 6   2287288.721 1
  21954577.563     5526814.232 6   4291860.146 1
  21277531.853   -13751222.541 7 -10613493.462 2
 91  4  7  3  1 29.9970000  0  4 13 02 06 12
  20213483.626     -325534.632 8   -242714.185 2
  22446194.767     2961146.647 6   2302725.060 1
  21961577.970     5563599.983 6   4320524.301 1
  21267782.431   -13802462.402 7 -10653420.573 2
 91  4  7  3  1 44.9970000  0  4 13 02 06 12
  20215164.040     -316699.710 8   -235829.813 2
  22449975.048     2981012.782 6   2318205.121 1
  21968594.134     5600469.552 6   4349253.777 1
  21258049.126   -13853605.726 7 -10693272.462 2
 91  4  7  3  1 59.9970000  0  4 13 02 06 12
  20216858.313     -307798.795 8   -228894.032 2
  22453769.267     3000940.082 6   2333732.847 1
  21975626.985     5637427.717 6   4378052.277 1
  21248336.290   -13904647.100 7 -10733044.902 2
 91  4  7  3  2 14.9970000  0  4 13 02 06 12
  20218564.134     -298828.753 8   -221904.371 2
  22457574.399     3020931.895 6   2349310.848 1
  21982676.860     5674477.438 6   4406922.123 1
  21238643.110   -13955582.937 7 -10772735.112 2
 91  4  7  3  2 29.9970000  0  4 13 02 06 12
  20220285.423     -289789.268 8   -214860.611 2
  22461388.751     3040988.892 6   2364939.634 1
  21989745.814     5711619.135 6   4435863.622 1
  21228971.485   -14006412.135 7 -10812342.225 2
 91  4  7  3  2 44.9970000  0  4 13 02 06 12
  20222017.126     -280684.734 8   -207766.154 2
  22465217.298     3061106.806 6   2380615.869 1
  21996828.915     5748848.265 6   4464873.269 1
  21219319.087   -14057138.605 7 -10851869.294 2
 91  4  7  3  2 59.9970000  0  4 13 02 06 12
  20223763.314     -271511.359 8   -200618.063 2
  22469057.189     3081289.847 6   2396342.858 1
  22003931.251     5786168.721 6   4493954.071 1
  21209686.134   -14107757.767 7 -10891312.739 2
 91  4  7  3  3 14.9970000  0  4 13 02 06 12
  20225520.853     -262273.289 8   -193419.562 2
  22472910.595     3101534.099 6   2412117.555 1
  22011049.009     5823576.085 6   4523102.609 1
  21200073.306   -14158273.327 7 -10930675.459 2
 91  4  7  3  3 29.9970000  0  4 13 02 06 12
  20227291.298     -252973.024 8   -186172.596 2
  22476774.438     3121837.200 6   2427938.112 1
  22018184.290     5861067.866 6   4552316.912 1
  21190479.493   -14208687.033 7 -10969958.812 2
 91  4  7  3  3 44.9970000  0  4 13 02 06 12
  20229072.220     -243609.087 8   -178876.013 2
  22480649.759     3142200.939 6   2443805.909 1
  22025336.001     5898645.556 6   4581598.172 1
  21180905.126   -14258996.861 7 -11009161.219 2
 91  4  7  3  3 59.9970000  0  4 13 02 06 12
  20230865.751     -234185.402 8   -171532.872 2
  22484536.274     3162621.665 6   2459718.118 1
  22032499.821     5936305.064 6   4610943.166 1
  21171352.298   -14309205.964 7 -11048285.138 2
 91  4  7  3  4 14.9970000  0  4 13 02 06 12
  20232671.603     -224696.025 8   -164138.540 2
  22488435.001     3183105.449 6   2475679.481 1
  22039684.087     5974052.372 6   4640356.582 1
  21161817.931   -14359307.855 7 -11087325.521 2
 91  4  7  3  4 29.9970000  0  4 13 02 06 12
  20234489.774     -215142.866 8   -156694.512 2
  22492343.681     3203650.672 6   2491688.689 1
  22046885.071     6011885.663 6   4669837.003 1
  21152303.321   -14409303.686 7 -11126283.254 2
 91  4  7  3  4 44.9970000  0  4 13 02 06 12
  20236319.939     -205527.484 8   -149202.003 2
  22496264.540     3224256.021 6   2507744.750 1
  22054099.040     6049803.135 6   4699383.009 1
  21142809.939   -14459194.524 7 -11165159.177 2
 91  4  7  3  4 59.9970000  0  4 13 02 06 12
  20238161.806     -195846.923 8   -141658.706 2
  22500197.149     3244924.928 6   2523850.371 1
  22061331.173     6087807.831 6   4728997.005 1
  21133336.392   -14508976.632 7 -11203950.380 2
 91  4  7  3  5 14.9970000  0  4 13 02 06 12
  20240014.728     -186107.291 8   -134069.375 2
  22504140.939     3265651.603 6   2540000.992 1
  22068579.384     6125893.673 6   4758674.201 1
  21123883.595   -14558655.482 7 -11242661.115 2
 91  4  7  3  5 29.9970000  0  4 13 02 06 12
  20241878.712     -176309.873 8   -126435.019 2
  22508096.821     3286434.875 6   2556195.698 1
  22075840.821     6164059.171 6   4788413.479 1
  21114448.954   -14608231.869 7 -11281292.013 2
 91  4  7  3  5 44.9970000  0  4 13 02 06 12
  20243755.220     -166450.027 8   -118752.021 2
  22512063.939     3307279.778 6   2572438.431 1
  22083119.696     6202308.972 6   4818218.446 1
  21105034.845   -14657700.446 7 -11319838.907 2
 91  4  7  3  5 59.9970000  0  4 13 02 06 12
  20245643.212     -156528.026 8   -111020.597 2
  22516041.970     3328186.155 6   2588729.080 1
  22090415.798     6240642.565 6   4848088.701 1
  21095642.321   -14707061.064 7 -11358301.662 2
 91  4  7  3  6 14.9970000  0  4 13 02 06 12
  20247543.774     -146545.289 8   -103241.838 2
  22520031.868     3349152.718 6   2605066.619 1
  22097727.290     6279058.622 6   4878023.224 1
  21086269.165   -14756314.467 7 -11396680.885 2
 91  4  7  3  6 29.9970000  0  4 13 02 06 12
  20249454.282     -136502.991 8    -95416.667 2
  22524033.720     3370178.376 6   2621450.216 1
  22105052.071     6317555.819 6   4908020.966 1
  21076916.939   -14805461.129 7 -11434976.926 2
 91  4  7  3  6 44.9970000  0  4 13 02 06 12
  20251375.196     -126402.938 8    -87546.488 2
  22528044.821     3391261.930 5   2637878.887 1
  22112391.774     6356132.471 6   4938080.624 1
  21067585.087   -14854502.114 7 -11473190.624 2
 91  4  7  3  6 59.9970000  0  4 13 02 06 12
  20253310.540     -116237.449 8    -79625.316 2
  22532068.978     3412411.283 5   2654358.855 1
  22119750.712     6394796.175 6   4968208.120 1
  21058273.407   -14903429.169 7 -11511315.539 2
 91  4  7  3  7 14.9970000  0  4 13 02 06 12
  20255255.548     -106014.315 8    -71659.229 2
  22536106.829     3433618.924 5   2670884.233 1
  22127123.884     6433539.100 6   4998397.339 1
  21048983.884   -14952249.471 7 -11549357.276 2
 91  4  7  3  7 29.9970000  0  4 13 02 06 12
  20257213.243      -95729.578 8    -63645.137 2
  22540153.251     3454888.913 6   2687458.190 1
  22134509.290     6472365.021 6   5028651.256 1
  21039715.204   -15000958.450 7 -11587312.273 2
 91  4  7  3  7 44.9970000  0  4 13 02 06 12
  20259180.876      -85387.726 8    -55586.539 2
  22544212.610     3476217.149 6   2704077.517 1
  22141914.907     6511269.464 6   5058966.313 1
  21030466.165   -15049559.962 7 -11625183.525 2
 91  4  7  3  7 59.9970000  0  4 13 02 06 12
  20261158.579      -74993.181 8    -47486.891 2
  22548280.274     3497599.527 6   2720739.048 1
  22149331.563     6550247.910 6   5089339.066 1
  21021237.110   -15098057.768 7 -11662973.970 2
 91  4  7  3  8 14.9970000  0  4 13 02 06 12
  20263148.157      -64539.209 8    -39340.933 2
  22552360.563     3519042.773 6   2737448.002 1
  22156765.431     6589307.008 6   5119774.651 1
  21012029.157   -15146444.794 7 -11700678.096 2
 91  4  7  3  8 29.9970000  0  4 13 02 06 12
  20265148.782      -54024.935 8    -31147.994 2
  22556452.665     3540548.086 6   2754205.334 1
  22164213.290     6628447.544 6   5150273.701 1
  21002842.704   -15194719.369 7 -11738294.592 2
 91  4  7  3  8 44.9970000  0  4 13 02 06 12
  20267160.751      -43453.058 8    -22910.160 2
  22560559.118     3562113.363 6   2771009.398 1
  22171675.728     6667666.997 6   5180834.239 1
  20993677.954   -15242883.329 7 -11775824.897 2
 91  4  7  3  8 59.9970000  0  4 13 02 06 12
  20269182.337      -32829.177 8    -14631.798 2
  22564672.313     3583733.028 6   2787855.828 1
  22179153.759     6706959.606 6   5211451.785 1
  20984533.446   -15290941.819 7 -11813273.017 2
 91  4  7  3  9 14.9970000  0  4 13 02 06 12
  20271214.259      -22149.846 8     -6310.239 2
  22568796.751     3605410.675 6   2804747.437 1
  22186646.774     6746328.635 6   5242128.867 1
  20975407.993   -15338890.912 7 -11850635.898 2
 91  4  7  3  9 29.9970000  0  4 13 02 06 12
  20273258.251      -11407.943 7      2060.083 2
  22572934.235     3627153.627 6   2821689.949 1
  22194152.688     6785781.058 6   5272870.958 1
  20966306.142   -15386722.839 7 -11887907.479 2
 91  4  7  3  9 44.9970000  0  4 13 02 06 12
  20275313.509        -614.244 8     10470.760 2
  22577083.462     3648951.455 6   2838675.254 1
  22201675.915     6825306.131 6   5303669.607 1
  20957224.165   -15434447.715 7 -11925095.644 2
 91  4  7  3  9 59.9970000  0  4 13 02 06 12
  20277377.907       10236.544 8     18925.926 2
  22581241.946     3670809.982 6   2855707.828 1
  22209210.884     6864909.316 6   5334529.185 1
  20948163.993   -15482059.397 7 -11962195.608 2
 91  4  7  3 10 14.9970000  0  4 13 02 06 12
  20279454.024       21146.258 8     27427.010 2
  22585413.642     3692730.938 6   2872789.019 1
  22216761.423     6904592.268 6   5365450.885 1
  20939125.868   -15529555.609 7 -11999205.600 2
 91  4  7  3 10 29.9970000  0  4 13 02 06 12
  20281538.415       32106.091 8     35967.150 2
  22589596.063     3714705.591 6   2889912.075 1
  22224327.642     6944345.832 6   5396427.607 1
  20930107.579   -15576944.752 7 -12036132.159 2
 91  4  7  3 10 44.9970000  0  4 13 02 06 12
  20283635.782       43124.600 8     44553.010 2
  22593790.274     3736742.680 6   2907083.796 1
  22231907.548     6984178.576 6   5427466.031 1
  20921112.298   -15624217.540 7 -12072968.050 2
 91  4  7  3 10 59.9970000  0  4 13 02 06 12
  20285742.860       54195.491 8     53179.689 2
  22597992.509     3758836.187 6   2924299.460 1
  22239500.673     7024084.059 6   5458561.137 1
  20912137.321   -15671379.794 7 -12109717.808 2
 91  4  7  3 11 14.9970000  0  4 13 02 06 12
  20287859.462       65317.635 8     61846.306 2
  22602209.399     3780985.782 6   2941558.844 1
  22247107.587     7064061.605 6   5489712.377 1
  20903183.485   -15718431.624 7 -12146381.525 2
 91  4  7  3 11 29.9970000  0  4 13 02 06 12
  20289985.767       76492.415 8     70553.938 2
  22606433.915     3803193.006 6   2958863.130 1
  22254732.673     7104112.323 6   5520920.652 1
  20894251.204   -15765371.118 7 -12182957.704 2
 91  4  7  3 11 44.9970000  0  4 13 02 06 12
  20292123.345       87724.968 8     79306.585 1
  22610671.993     3825463.013 6   2976216.313 1
  22262367.415     7144241.277 5   5552189.881 1
  20885341.290   -15812192.607 7 -12219441.942 2
 91  4  7  3 11 59.9970000  0  4 13 02 06 12
  20294271.681       99013.238 8     88102.649 1
  22614921.821     3847793.973 5   2993617.033 1
  22270016.767     7184446.219 6   5583518.330 1
  20876453.603   -15858897.565 7 -12255835.368 2
 91  4  7  3 12 14.9970000  0  4 13 02 06 12
  20296429.954      110354.883 8     96940.303 2
  22619182.313     3870183.871 6   3011063.667 1
  22277679.899     7224724.661 5   5614904.062 1
  20867587.548   -15905487.860 7 -12292139.449 2
 91  4  7  3 12 29.9970000  0  4 13 02 06 12
  20298598.384      121757.526 8    105825.496 2
  22623455.571     3892640.643 5   3028562.424 1
  22285362.423     7265084.379 6   5646353.080 1
  20858745.938   -15951955.068 7 -12328347.618 2
 91  4  7  3 12 44.9970000  0  4 13 02 06 12
  20300779.743      133212.000 8    114751.065 2
  22627737.524     3915155.109 5   3046106.104 1
  22293056.259     7305515.953 5   5677858.152 1
  20849924.892   -15998307.822 7 -12364466.603 2
 91  4  7  3 12 59.9970000  0  4 13 02 06 12
  20302967.485      144713.576 8    123713.347 2
  22632033.938     3937723.002 5   3063691.405 1
  22300764.485     7346014.718 6   5709415.521 1
  20841124.868   -16044550.164 7 -12400499.551 2
 91  4  7  3 13 14.9970000  0  4 13 02 06 12
  20305165.696      156263.791 8    132713.529 2
  22636338.954     3960345.771 6   3081319.481 1
  22308479.868     7386581.903 5   5741026.239 1
  20832346.657   -16090680.140 7 -12436444.943 2
 91  4  7  3 13 29.9970000  0  4 13 02 06 12
  20307373.884      167868.301 8    141756.021 2
  22640655.345     3983029.454 6   3098995.023 1
  22316215.235     7427223.203 5   5772694.689 1
  20823591.478   -16136691.453 7 -12472297.875 2
 91  4  7  3 13 44.9970000  0  4 13 02 06 12
  20309590.923      179521.875 8    150836.740 2
  22644983.353     4005768.959 5   3116714.065 1
  22323963.548     7467933.205 5   5804416.691 1
  20814857.353   -16182588.715 7 -12508061.935 2
 91  4  7  3 13 59.9970000  0  4 13 02 06 12
  20311819.220      191225.269 8    159956.281 2
  22649320.798     4028565.275 6   3134477.386 1
  22331723.079     7508712.560 5   5836192.705 1
  20806144.517   -16228370.731 7 -12543736.190 2
 91  4  7  3 14 14.9970000  0  4 13 02 06 12
  20314054.853      202979.242 8    169115.233 2
  22653672.103     4051419.366 6   3152285.742 1
  22339496.735     7549562.003 5   5868023.358 1
  20797454.978   -16274036.195 7 -12579319.626 2
 91  4  7  3 14 29.9970000  0  4 13 02 06 12
  20316301.376      214784.198 8    178313.918 2
  22658028.243     4074332.129 6   3170139.771 1
  22347283.696     7590482.193 5   5899909.109 1
  20788787.595   -16319583.699 7 -12614811.148 2
 91  4  7  3 14 44.9970000  0  4 13 02 06 12
  20318557.470      226638.782 8    187551.271 2
  22662401.829     4097302.603 6   3188038.809 1
  22355083.493     7631471.643 5   5931848.848 1
  20780142.782   -16365013.946 7 -12650211.298 2
 91  4  7  3 14 59.9970000  0  4 13 02 06 12
  20320822.267      238539.420 8    196824.510 2
  22666782.642     4120327.065 6   3205979.866 1
  22362895.290     7672526.487 5   5963839.548 1
  20771519.282   -16410330.191 7 -12685522.615 2
 91  4  7  3 15 14.9970000  0  4 13 02 06 12
  20323096.228      250490.892 8    206137.362 2
  22671175.220     4143410.639 6   3223967.013 1
  22370722.462     7713651.494 5   5995884.895 1
  20762918.024   -16455527.060 7 -12720740.913 2
 91  4  7  3 15 29.9970000  0  4 13 02 06 12
  20325381.415      262495.789 8    215491.846 2
  22675579.274     4166556.267 6   3242002.536 1
  22378561.931     7754849.112 5   6027986.853 1
  20754340.212   -16500601.339 7 -12755863.690 2
 91  4  7  3 15 44.9970000  0  4 13 02 06 12
  20327673.626      274548.283 8    224883.419 2
  22679995.095     4189758.158 6   3260081.880 1
  22386414.446     7796113.444 6   6060140.762 1
  20745784.704   -16545558.232 7 -12790894.993 2
 91  4  7  3 15 59.9970000  0  4 13 02 06 12
  20329975.907      286643.700 8    234308.438 2
  22684420.806     4213011.845 6   3278201.577 1
  22394278.579     7837439.672 5   6092342.940 1
  20737251.720   -16590401.917 7 -12825838.082 2
 91  4  7  3 16 14.9970000  0  4 13 02 06 12
  20332286.868      298789.303 8    243772.560 2
  22688856.728     4236325.017 6   3296367.621 1
  22402157.915     7878835.134 5   6124599.038 1
  20728741.642   -16635124.496 7 -12860686.804 2
 91  4  7  3 16 29.9970000  0  4 13 02 06 12
  20334608.767      310988.435 8    253278.399 2
  22693304.806     4259700.924 6   3314582.557 1
  22410046.220     7920302.912 5   6156911.495 1
  20720255.470   -16679722.077 7 -12895438.122 2
 91  4  7  3 16 44.9970000  0  4 13 02 06 12
  20336940.087      323236.859 8    262822.638 2
  22697763.985     4283135.455 6   3332843.173 1
  22417951.540     7961838.650 5   6189276.898 1
  20711791.188   -16724198.533 7 -12930095.062 2
 91  4  7  3 16 59.9970000  0  4 13 02 06 12
  20339279.228      335533.413 8    272404.380 2
  22702237.353     4306628.068 6   3351149.042 1
  22425867.829     8003441.306 5   6221694.448 1
  20703352.103   -16768554.004 7 -12964657.724 2
 91  4  7  3 17 14.9970000  0  4 13 02 06 12
  20341627.212      347874.442 8    282020.782 2
  22706715.954     4330175.470 6   3369497.616 1
  22433797.329     8045107.215 5   6254161.310 1
  20694932.079   -16812791.602 7 -12999128.532 2
 91  4  7  3 17 29.9970000  0  4 13 02 06 12
  20343985.579      360261.923 8    291673.376 2
  22711208.712     4353779.510 6   3387890.318 1
  22441738.282     8086837.974 5   6286678.655 1
  20686536.970   -16856909.053 7 -13033505.722 2
 91  4  7  3 17 44.9970000  0  4 13 02 06 12
  20346349.899      372696.198 8    301362.435 2
  22715711.228     4377440.762 6   3406327.590 1
  22449692.954     8128633.942 5   6319246.854 1
  20678164.790   -16900905.272 7 -13067788.443 2
 91  4  7  3 17 59.9970000  0  4 13 02 06 12
  20348727.470      385183.133 8    311092.522 2
  22720225.978     4401165.153 6   3424814.076 1
  22457658.853     8170500.788 5   6351870.249 1
  20669816.743   -16944773.892 7 -13101971.736 2
 91  4  7  3 18 14.9970000  0  4 13 02 06 12
  20351112.235      397716.305 8    320858.646 2
  22724750.610     4424946.453 6   3443344.892 1
  22465637.587     8212431.875 5   6384543.732 1
  20661492.712   -16988520.890 7 -13136060.257 2
 91  4  7  3 18 29.9970000  0  4 13 02 06 12
  20353506.290      410294.705 8    330660.009 2
  22729285.790     4448784.250 5   3461919.752 1
  22473628.384     8254426.335 5   6417266.569 1
  20653191.259   -17032146.494 7 -13170054.184 2
 91  4  7  3 18 44.9970000  0  4 13 02 06 12
  20355908.095      422920.175 8    340498.051 2
  22733831.899     4472680.289 5   3480539.985 1
  22481634.212     8296485.878 5   6450040.143 1
  20644912.915   -17075648.401 7 -13203951.727 2
 91  4  7  3 18 59.9970000  0  4 13 02 06 12
  20358319.306      435588.529 8    350369.503 2
  22738390.915     4496630.911 5   3499202.763 1
  22489650.399     8338606.387 5   6482861.220 1
  20636657.196   -17119029.872 7 -13237755.425 2
 91  4  7  3 19 14.9970000  0  4 13 02 06 12
  20360737.579      448302.591 8    360276.575 2
  22742959.196     4520638.938 5   3517910.251 1
  22497674.493     8380790.415 5   6515731.768 1
  20628425.673   -17162287.787 7 -13271462.846 2
 91  4  7  3 19 29.9970000  0  4 13 02 06 12
  20363167.087      461069.254 8    370224.635 2
  22747542.126     4544711.303 5   3536667.894 1
  22505717.743     8423044.710 5   6548657.121 1
  20620219.118   -17205414.866 8 -13305068.314 2
 91  4  7  3 19 44.9970000  0  4 13 02 06 12
  20365605.751      473880.453 8    380207.398 2
  22752132.853     4568840.173 5   3555469.561 1
  22513770.056     8465361.032 5   6581630.782 1
  20612035.743   -17248418.547 7 -13338577.627 2
 91  4  7  3 19 59.9970000  0  4 13 02 06 12
  20368052.978      486733.964 8    390223.125 2
  22756735.642     4593023.863 5   3574313.939 1
  22521833.173     8507737.465 5   6614651.264 1
  20603875.134   -17291300.151 7 -13371991.822 2
 91  4  7  3 20 14.9970000  0  4 13 02 06 12
  20370506.212      499633.267 8    400274.540 2
  22761347.751     4617265.933 5   3593203.795 1
  22529907.157     8550177.176 5   6647721.077 1
  20595739.329   -17334055.778 8 -13405307.846 2
 91  4  7  3 20 29.9970000  0  4 13 02 06 12
  20372969.478      512577.682 8    410361.103 2
  22765971.345     4641566.025 5   3612138.886 1
  22537997.329     8592679.389 5   6680839.578 1
  20587626.915   -17376685.576 7 -13438525.824 2
 91  4  7  3 20 44.9970000  0  4 13 02 06 12
  20375440.868      525565.622 8    420481.584 2
  22770606.321     4665922.716 5   3631118.069 1
  22546098.290     8635242.474 5   6714005.512 1
  20579538.009   -17419190.454 7 -13471646.462 2
 91  4  7  3 20 59.9970000  0  4 13 02 06 12
  20377921.337      538600.255 8    430638.450 2
  22775252.939     4690339.305 5   3650143.941 1
  22554208.110     8677869.522 5   6747221.298 1
  20571474.595   -17461566.887 7 -13504667.009 2
 91  4  7  3 21 14.9970000  0  4 13 02 06 12
  20380409.399      551673.780 8    440825.619 2
  22779907.954     4714807.835 5   3669210.273 1
  22562333.282     8720552.288 5   6780480.488 1
  20563433.446   -17503822.197 7 -13537593.176 2
 91  4  7  3 21 29.9970000  0  4 13 02 06 12
  20382905.618      564791.026 8    451046.857 2
  22784576.470     4739333.580 5   3688321.167 1
  22570465.181     8763295.719 5   6813786.962 1
  20555416.548   -17545950.857 8 -13570420.652 2
 91  4  7  3 21 44.9970000  0  4 13 02 06 12
  20385410.321      577949.396 8    461300.139 2
  22789253.853     4763914.235 5   3707474.869 1
  22578608.118     8806097.220 5   6847138.668 1
  20547424.399   -17587954.715 8 -13603150.886 2
 91  4  7  3 21 59.9970000  0  4 13 02 06 12
  20387922.274      591154.761 8    471590.046 2
  22793944.118     4788555.731 5   3726675.954 1
  22586766.642     8848962.363 5   6880539.954 1
  20539456.540   -17629827.650 8 -13635779.099 2
 91  4  7  3 22 14.9970000  0  4 13 02 06 12
  20390443.415      604401.599 8    481912.270 2
  22798644.759     4813252.887 5   3745920.422 1
  22594936.181     8891885.565 5   6913986.493 1
  20531511.907   -17671574.541 7 -13668309.094 2
 91  4  7  3 22 29.9970000  0  4 13 02 06 12
  20392973.470      617696.284 8    492271.775 2
  22803355.892     4838012.196 5   3765213.337 1
  22603114.126     8934873.105 5   6947483.148 1
  20523592.126   -17713188.423 7 -13700735.448 2
 91  4  7  3 22 44.9970000  0  4 13 02 06 12
  20395512.009      631038.857 8    502668.599 2
  22808077.720     4862834.037 6   3784554.983 1
  22611307.657     8977925.163 5   6981030.117 1
  20515698.423   -17754668.541 7 -13733057.572 2
 91  4  7  3 22 59.9970000  0  4 13 02 06 12
  20398058.509      644422.070 8    513097.091 2
  22812811.048     4887711.392 5   3803939.868 1
  22619510.321     9021034.374 5   7014621.587 1
  20507829.181   -17796021.631 7 -13765280.713 2
 91  4  7  3 23 14.9970000  0  4 13 02 06 12
  20400610.899      657834.918 8    523548.681 1
  22817556.540     4912633.595 6   3823359.732 1
  22627721.321     9064189.630 5   7048248.940 1
  20499982.384   -17837258.063 7 -13797412.952 2
 91  4  7  3 23 29.9970000  0  4 13 02 06 12
  20403171.540      671289.185 8    534032.539 2
  22822309.384     4937612.394 5   3842823.703 1
  22635945.978     9107402.483 5   7081921.191 1
  20492159.798   -17878365.610 7 -13829444.762 2
 91  4  7  3 23 44.9960000  0  4 13 02 06 12
  20405739.809      684789.816 8    544552.529 1
  22827073.988     4962651.905 5   3862334.947 1
  22644182.941     9150675.592 5   7115640.390 1
  20484363.613   -17919335.260 7 -13861369.117 2
 91  4  7  3 23 59.9960000  0  4 13 02 06 12
  20408317.504      698334.775 8    555107.053 1
  22831849.691     4987751.926 5   3881893.361 1
  22652427.871     9194010.857 5   7149408.021 1
  20476592.473   -17960175.754 7 -13893192.836 2
 91  4  7  3 24 14.9960000  0  4 13 02 06 12
  20410901.215      711914.775 8    565688.883 1
  22836635.527     5012902.705 5   3901491.313 1
  22660683.020     9237396.803 5   7183215.144 1
  20468843.824   -18000892.231 7 -13924919.913 2
 91  4  7  3 24 29.9960000  0  4 13 02 06 12
  20413493.918      725536.342 8    576303.106 1
  22841433.652     5038111.109 5   3921134.156 1
  22668950.145     9280840.123 5   7217066.944 1
  20461120.473   -18041477.485 7 -13956544.747 2
 91  4  7  3 24 44.9960000  0  4 13 02 06 12
  20416094.441      739195.980 8    586947.000 1
  22846237.902     5063373.833 5   3940819.323 1
  22677228.598     9324337.168 5   7250960.644 1
  20453422.301   -18081934.479 7 -13988069.632 2
 91  4  7  3 24 59.9960000  0  4 13 02 06 12
  20418701.129      752902.658 8    597627.543 1
  22851058.684     5088699.729 5   3960553.727 1
  22685517.356     9367896.735 5   7284903.027 1
  20445748.895   -18122253.827 7 -14019487.259 2
 91  4  7  3 25 14.9960000  0  4 13 02 06 12
  20421316.691      766648.281 8    608338.433 1
  22855889.121     5114081.162 5   3980331.428 1
  22693816.043     9411510.620 5   7318887.761 1
  20438102.441   -18162443.038 7 -14050803.483 2
 91  4  7  3 25 29.9960000  0  4 13 02 06 12
  20423939.574      780429.525 8    619077.084 1
  22860729.637     5139514.602 5   4000149.628 1
  22702124.816     9455175.208 5   7352912.002 1
  20430478.348   -18202505.003 7 -14082020.556 2
 91  4  7  3 25 44.9960000  0  4 13 02 06 12
  20426569.582      794249.461 8    629845.877 1
  22865579.981     5165003.521 5   4020011.078 1
  22710445.465     9498893.600 5   7386978.150 1
  20422879.277   -18242435.996 7 -14113135.571 2
 91  4  7  3 25 59.9960000  0  4 13 02 06 12
  20429206.527      808108.687 8    640645.291 1
  22870442.105     5190548.938 5   4039916.554 1
  22718774.676     9542666.239 5   7421086.586 1
  20415306.402   -18282234.886 7 -14144147.651 2
 91  4  7  3 26 14.9960000  0  4 13 02 06 12
  20431852.527      822009.708 8    651477.270 1
  22875312.902     5216153.303 5   4059867.951 1
  22727115.441     9586495.796 5   7455239.360 1
  20407757.113   -18321898.582 7 -14175054.378 2
 91  4  7  3 26 29.9960000  0  4 13 02 06 12
  20434504.066      835944.779 8    662335.784 1
  22880195.527     5241809.187 5   4079859.507 1
  22735465.559     9630374.119 5   7489430.118 1
  20400234.027   -18361434.311 7 -14205861.394 2
 91  4  7  3 26 44.9960000  0  4 13 02 06 12
  20437162.066      849913.375 8    673220.427 1
  22885089.762     5267516.249 5   4099890.911 1
  22743822.988     9674300.651 5   7523658.456 1
  20392734.520   -18400842.114 7 -14236568.729 2
 91  4  7  3 26 59.9960000  0  4 13 02 06 12
  20439827.707      863917.915 8    684133.078 1
  22889990.840     5293276.602 5   4119963.852 1
  22752190.449     9718277.453 5   7557925.968 1
  20385260.793   -18440119.211 7 -14267174.211 2
 91  4  7  3 27 14.9960000  0  4 13 02 06 12
  20442500.348      877961.418 8    695076.080 1
  22894901.566     5319093.708 5   4140081.020 1
  22760570.160     9762307.607 5   7592235.100 1
  20377813.465   -18479261.976 7 -14297675.018 2
 91  4  7  3 27 29.9960000  0  4 13 02 06 12
  20445178.840      892041.496 8    706047.582 1
  22899825.785     5344965.611 5   4160240.875 1
  22768966.777     9806388.721 5   7626583.865 1
  20370389.066   -18518272.087 7 -14328072.458 2
 91  4  7  3 27 44.9960000  0  4 13 02 06 12
  20447864.973      906161.992 8    717050.579 1
  22904760.746     5370896.459 5   4180446.681 1
  22777355.066     9850524.694 5   7660975.420 1
  20362991.715   -18557145.060 7 -14358363.038 2
 91  4  7  3 27 59.9960000  0  4 13 02 06 12
  20450559.941      920321.011 8    728083.595 1
  22909707.238     5396884.318 6   4200696.882 1
  22785766.910     9894713.118 5   7695407.849 1
  20355619.512   -18595882.508 7 -14388548.016 2
 91  4  7  3 28 14.9960000  0  4 13 02 06 12
  20453262.793      934519.653 8    739147.491 1
  22914662.926     5422930.298 5   4220992.417 1
  22794189.348     9938955.182 5   7729882.033 1
  20348274.066   -18634482.893 7 -14418626.189 2
 91  4  7  3 28 29.9960000  0  4 13 02 06 12
  20455969.660      948748.879 8    750235.213 1
  22919627.418     5449025.652 6   4241326.418 1
  22802615.106     9983241.560 5   7764390.756 1
  20340953.910   -18672954.622 7 -14448604.117 2
 91  4  7  3 28 44.9960000  0  4 13 02 06 12
  20458686.543      963015.949 8    761352.426 1
  22924604.988     5475177.880 5   4261704.706 1
  22811054.090    10027579.577 5   7798939.710 1
  20333659.566   -18711289.794 7 -14478475.635 2
 91  4  7  3 28 59.9960000  0  4 13 02 06 12
  20461406.723      977318.541 8    772497.309 1
  22929592.379     5501384.606 5   4282125.476 1
  22819499.691    10071966.681 5   7833526.966 1
  20326389.871   -18749490.428 7 -14508242.315 2
 91  4  7  3 29 14.9960000  0  4 13 02 06 12
  20464135.996      991663.820 8    783675.462 1
  22934590.566     5527653.336 5   4302594.558 1
  22827957.387    10116409.922 5   7868157.969 1
  20319147.762   -18787548.802 7 -14537898.144 2
 91  4  7  3 29 29.9960000  0  4 13 02 06 12
  20466872.293     1006041.510 8    794878.865 1
  22939598.402     5553974.118 5   4323104.183 1
  22836423.410    10160898.918 5   7902824.553 1
  20311929.965   -18825474.601 7 -14567450.664 2
 91  4  7  3 29 44.9960000  0  4 13 02 06 12
  20469613.949     1020451.727 8    806107.614 1
  22944619.106     5580347.077 5   4343654.481 1
  22844896.160    10205433.674 5   7937526.815 1
  20304738.426   -18863267.294 7 -14596899.471 2
